GFSNGP_700_temp_060.txt.gz
Temp
-3 -3 -3 -3 -3 -4 -4 -4 -3 -1 -0 0 -1 -1 -1 -1 -1 -1 -1 -0 -1 0 2 1 1 1 1 -1 -2 -2 -3 -3 -2 -2 -1 -1 -2 -1 -1 -1 -0 -1 -0 -1
-3 -3 -4 -3 -3 -4 -4 -3 -3 -2 -1 -2 -1 -2 -1 -1 -1 -1 -1 -0 0 1 1 1 1 -0 -1 -1 -3 -2 -2 -2 -2 -2 -1 -2 -2 -2 -1 -1 -1 -1 -1 -1
-3 -4 -3 -3 -2 -2 -2 -1 -1 -2 -1 -1 -1 -1 -1 -1 -1 -2 -2 -2 0 -0 0 0 -1 -2 -3 -3 -3 -1 -1 -1 -2 -2 -2 -2 -1 -2 -3 -2 -2 -1 -1 -1
-4 -3 -4 -2 -1 -1 -1 -2 -1 -1 -1 -1 -1 -1 -1 -1 -1 -2 -1 -2 -0 -0 0 -2 -3 -4 -4 -3 -3 -3 -2 -2 -3 -3 -2 -2 -2 -2 -2 -2 -2 -2 -2 -2
-5 -4 -3 -1 -1 -1 -1 -1 -1 -1 -1 -1 -1 -1 -1 -2 -2 -1 -1 -1 -1 -0 -0 -1 -2 -3 -4 -3 -3 -3 -3 -3 -3 -3 -3 -2 -2 -2 -2 -2 -2 -2 -2 -3
-4 -5 -5 -2 -2 -1 -2 -2 -2 -1 -1 -1 -1 -1 -1 -2 -2 -1 -0 -1 -1 -1 -1 -2 -3 -4 -3 -3 -3 -3 -4 -3 -3 -3 -4 -3 -2 -3 -3 -3 -3 -3 -4 -4
-5 -4 -3 -2 -2 -2 -2 -2 -2 -1 -1 -1 -1 -1 -2 -2 -2 -1 0 -1 -2 -2 -3 -4 -4 -3 -3 -3 -3 -3 -4 -3 -4 -3 -3 -3 -4 -4 -4 -4 -4 -4 -4 -5
-5 -5 -4 -2 -2 -3 -2 -2 -1 -1 -1 -1 -1 -1 -2 -2 -2 -1 -0 -1 -2 -2 -3 -3 -2 -2 -2 -3 -3 -3 -3 -3 -4 -4 -4 -4 -4 -4 -5 -4 -4 -4 -4 -3
-4 -3 -3 -3 -3 -3 -2 -2 -1 -1 -1 -1 -1 -2 -2 -2 -1 -1 -1 -0 -0 -2 -3 -3 -2 -2 -2 -3 -3 -3 -3 -3 -4 -4 -4 -4 -4 -4 -4 -4 -4 -4 -3 -3
-4 -3 -3 -3 -3 -2 -2 -2 -1 -1 -1 -1 -1 -2 -2 -2 -2 -1 -1 -1 -1 -2 -2 -2 -2 -2 -3 -2 -3 -3 -4 -4 -4 -4 -4 -4 -4 -4 -4 -4 -4 -3 -3 -4
-3 -3 -3 -3 -2 -2 -2 -2 -2 -2 -2 -1 -1 -2 -2 -2 -2 -1 -2 -1 -2 -2 -2 -2 -2 -2 -2 -3 -3 -3 -4 -4 -4 -4 -4 -4 -4 -4 -4 -4 -4 -4 -4 -4
-4 -3 -3 -2 -3 -2 -2 -2 -2 -2 -2 -1 -2 -2 -2 -2 -2 -2 -2 -2 -2 -2 -2 -2 -2 -3 -3 -3 -3 -3 -3 -4 -4 -4 -4 -4 -4 -4 -4 -4 -4 -4 -4 -4
-4 -4 -3 -2 -3 -2 -2 -2 -2 -1 -1 -2 -1 -2 -2 -2 -2 -2 -3 -3 -3 -2 -2 -2 -2 -2 -3 -3 -3 -4 -4 -4 -4 -4 -4 -4 -4 -4 -4 -4 -4 -4 -4 -3
-4 -4 -4 -4 -4 -3 -2 -2 -2 -1 -1 -1 -2 -2 -2 -2 -2 -2 -3 -3 -3 -3 -2 -2 -3 -3 -3 -3 -4 -4 -4 -4 -4 -4 -4 -4 -4 -4 -4 -4 -4 -4 -4 -4
-4 -4 -3 -3 -3 -3 -3 -2 -2 -2 -1 -1 -1 -1 -2 -2 -2 -2 -3 -3 -3 -3 -3 -3 -3 -3 -3 -3 -4 -4 -4 -4 -4 -5 -5 -5 -5 -5 -5 -4 -4 -4 -4 -4
-5 -5 -4 -4 -4 -3 -3 -3 -2 -2 -1 -1 -1 -1 -2 -2 -2 -2 -2 -2 -3 -3 -3 -3 -4 -4 -4 -4 -4 -4 -4 -5 -5 -5 -5 -5 -5 -5 -5 -5 -5 -4 -5 -4
-4 -4 -5 -4 -4 -4 -4 -3 -2 -3 -2 -2 -2 -2 -2 -2 -2 -2 -2 -2 -3 -3 -4 -5 -4 -4 -4 -4 -4 -5 -5 -5 -5 -5 -5 -5 -5 -5 -5 -5 -5 -5 -5 -5
-4 -3 -3 -3 -4 -4 -4 -4 -3 -3 -3 -3 -3 -3 -2 -2 -2 -2 -2 -3 -3 -3 -4 -5 -5 -4 -4 -4 -4 -5 -5 -5 -5 -5 -5 -5 -5 -5 -5 -5 -5 -5 -6 -6
-3 -2 -2 -1 -2 -2 -2 -3 -3 -2 -3 -3 -3 -3 -3 -2 -2 -2 -2 -3 -3 -3 -4 -5 -5 -5 -5 -5 -5 -5 -5 -5 -5 -6 -6 -6 -6 -6 -5 -5 -6 -6 -6 -7
-4 -4 -3 -2 -2 -2 -2 -3 -2 -2 -3 -3 -2 -2 -2 -3 -3 -2 -2 -3 -3 -4 -4 -5 -5 -5 -5 -5 -5 -5 -6 -6 -6 -6 -6 -6 -6 -6 -6 -6 -6 -6 -7 -8
-3 -3 -4 -3 -3 -2 -2 -3 -3 -3 -3 -2 -3 -2 -3 -3 -2 -3 -3 -3 -4 -4 -5 -5 -5 -5 -5 -5 -5 -6 -6 -6 -6 -6 -6 -6 -6 -6 -6 -6 -7 -7 -8 -9
-4 -4 -3 -3 -3 -3 -3 -4 -3 -4 -3 -3 -2 -3 -3 -3 -3 -3 -3 -4 -4 -5 -6 -6 -5 -5 -5 -6 -6 -6 -6 -6 -6 -6 -7 -7 -7 -6 -7 -7 -7 -8 -8 -9
-5 -4 -4 -3 -3 -3 -3 -3 -3 -4 -4 -3 -3 -3 -3 -4 -4 -4 -5 -5 -5 -5 -5 -5 -5 -6 -6 -6 -6 -6 -6 -6 -7 -7 -7 -7 -7 -7 -7 -7 -7 -8 -9 -10
-5 -5 -5 -5 -4 -4 -3 -3 -3 -3 -3 -4 -3 -3 -4 -4 -4 -4 -4 -4 -5 -5 -5 -5 -6 -6 -6 -6 -6 -6 -7 -7 -7 -7 -7 -7 -7 -7 -7 -7 -8 -9 -9 -10
-5 -5 -5 -5 -4 -3 -3 -3 -3 -3 -3 -3 -3 -3 -4 -4 -4 -4 -4 -5 -5 -5 -5 -6 -6 -6 -6 -6 -7 -7 -7 -7 -7 -8 -7 -7 -7 -7 -7 -8 -8 -9 -10 -10
-5 -4 -4 -4 -4 -3 -3 -3 -3 -3 -4 -3 -3 -3 -4 -4 -4 -4 -5 -5 -5 -6 -6 -7 -7 -7 -7 -7 -7 -7 -8 -8 -8 -8 -8 -8 -8 -7 -8 -8 -9 -9 -10 -10
-4 -4 -4 -4 -3 -3 -3 -3 -3 -3 -3 -3 -3 -4 -4 -3 -4 -4 -4 -5 -6 -6 -6 -6 -8 -8 -8 -8 -8 -9 -9 -9 -9 -8 -8 -8 -8 -8 -8 -8 -9 -10 -10 -11

GFSNGP_700_temp_063.txt.gz
Temp
-3 -3 -3 -3 -3 -3 -4 -3 -3 -1 -0 -0 -1 -1 -1 -1 -1 -2 -2 -1 0 1 2 2 3 2 2 2 2 2 1 0 -0 -1 -1 -2 -2 -2 -2 -2 -2 -1 -1 -0
-3 -3 -3 -3 -3 -3 -3 -3 -3 -2 -1 -1 -1 -2 -1 -1 -2 -2 -2 -2 -2 1 2 2 2 2 1 1 1 1 1 -0 -1 -2 -2 -2 -2 -2 -2 -2 -3 -3 -3 -1
-3 -4 -4 -4 -2 -2 -2 -2 -2 -2 -1 -1 -1 -1 -1 -1 -1 -2 -2 -1 -1 -0 1 2 1 1 1 2 1 -0 0 -0 -1 -1 -2 -3 -3 -2 -2 -2 -3 -2 -2 -1
-4 -4 -4 -2 -2 -2 -2 -2 -2 -1 -1 -1 -1 -1 -1 -1 -2 -2 -2 -2 -2 -1 1 1 1 1 1 1 -0 -1 -1 -1 -2 -1 -3 -4 -3 -2 -3 -3 -3 -2 -2 -2
-5 -5 -3 -2 -2 -2 -2 -2 -2 -2 -1 -1 -1 -1 -1 -1 -2 -2 -2 -2 -1 -0 1 1 1 1 0 -1 -1 -3 -3 -4 -4 -3 -3 -4 -3 -2 -3 -3 -3 -4 -4 -4
-5 -5 -4 -3 -2 -2 -2 -2 -2 -2 -2 -1 -1 0 -1 -2 -3 -3 -1 -0 -0 0 0 -0 1 0 -3 -2 -4 -3 -4 -4 -4 -3 -4 -3 -3 -3 -4 -4 -4 -5 -5 -5
-5 -4 -3 -3 -2 -2 -2 -2 -2 -2 -2 -1 -1 -1 -1 -2 -3 -2 -0 0 -1 -0 -2 -1 -0 -1 -3 -3 -3 -3 -4 -4 -4 -4 -4 -4 -4 -4 -5 -5 -5 -4 -4 -4
-5 -5 -4 -3 -3 -3 -2 -2 -2 -2 -1 -1 -1 -1 -2 -2 -2 -1 -1 0 -1 -2 -3 -1 -1 -1 -2 -3 -3 -3 -4 -3 -4 -4 -4 -4 -4 -4 -4 -4 -4 -4 -4 -4
-4 -3 -3 -3 -3 -3 -2 -2 -2 -1 -1 -1 -1 -1 -2 -2 -2 -1 -1 0 0 -2 -2 -2 -1 -1 -2 -3 -3 -3 -3 -3 -4 -4 -4 -4 -4 -4 -4 -4 -4 -4 -4 -3
-4 -3 -3 -4 -4 -3 -2 -2 -2 -2 -1 -2 -2 -2 -2 -2 -2 -1 -1 -1 -1 -1 -2 -2 -2 -2 -2 -2 -2 -3 -3 -3 -4 -4 -4 -4 -4 -4 -4 -4 -4 -4 -4 -4
-4 -3 -3 -4 -3 -3 -2 -2 -2 -2 -2 -2 -2 -2 -2 -2 -2 -1 -1 -1 -1 -2 -2 -2 -2 -2 -2 -2 -2 -3 -3 -3 -4 -4 -4 -4 -4 -4 -4 -4 -4 -4 -4 -3
-4 -3 -3 -3 -3 -3 -3 -2 -3 -2 -2 -2 -2 -2 -1 -1 -2 -2 -2 -2 -2 -2 -2 -2 -2 -2 -2 -2 -2 -3 -3 -3 -4 -4 -4 -4 -4 -4 -4 -4 -4 -4 -4 -4
-4 -5 -4 -4 -3 -3 -3 -2 -2 -2 -2 -2 -2 -2 -2 -2 -2 -2 -2 -2 -2 -2 -2 -2 -2 -2 -3 -3 -3 -3 -3 -3 -4 -4 -4 -4 -4 -4 -4 -4 -4 -4 -4 -3
-4 -4 -4 -4 -4 -4 -4 -3 -3 -2 -2 -2 -2 -2 -2 -2 -2 -2 -2 -3 -3 -3 -3 -2 -3 -3 -3 -3 -3 -4 -4 -4 -4 -4 -4 -4 -4 -4 -4 -4 -4 -4 -4 -4
-4 -4 -4 -4 -4 -4 -4 -3 -3 -3 -2 -2 -2 -2 -2 -1 -2 -2 -2 -2 -3 -3 -3 -3 -3 -3 -3 -4 -4 -4 -4 -4 -4 -4 -4 -5 -5 -5 -5 -4 -4 -4 -4 -4
-4 -4 -5 -5 -5 -4 -4 -4 -3 -3 -2 -2 -2 -2 -2 -2 -2 -2 -2 -2 -3 -3 -3 -3 -3 -3 -3 -4 -4 -4 -4 -4 -5 -5 -5 -5 -5 -5 -5 -5 -5 -5 -4 -4
-5 -5 -5 -5 -5 -4 -4 -4 -4 -4 -3 -4 -3 -3 -2 -3 -2 -2 -2 -2 -3 -3 -3 -3 -4 -4 -4 -4 -4 -4 -4 -5 -5 -5 -5 -5 -5 -5 -5 -5 -5 -5 -5 -5
-5 -4 -4 -4 -4 -5 -4 -5 -4 -4 -4 -3 -3 -3 -3 -3 -3 -3 -2 -2 -2 -3 -3 -4 -4 -4 -4 -4 -5 -5 -5 -5 -5 -5 -5 -5 -5 -5 -5 -5 -5 -5 -5 -6
-4 -4 -4 -3 -3 -2 -2 -3 -3 -3 -3 -3 -3 -3 -3 -3 -3 -3 -3 -3 -2 -3 -3 -4 -4 -4 -4 -4 -5 -5 -5 -5 -5 -5 -6 -6 -6 -6 -6 -6 -6 -6 -6 -6
-5 -5 -5 -4 -3 -3 -2 -2 -2 -3 -3 -3 -3 -3 -3 -2 -3 -2 -3 -3 -3 -3 -3 -4 -4 -5 -6 -5 -5 -5 -5 -5 -6 -6 -6 -6 -6 -6 -6 -6 -6 -6 -6 -7
-5 -4 -4 -4 -4 -4 -3 -3 -3 -3 -3 -3 -3 -3 -3 -3 -3 -3 -3 -3 -3 -4 -4 -4 -5 -5 -7 -6 -5 -5 -6 -6 -6 -6 -6 -6 -6 -6 -6 -7 -6 -6 -7 -7
-5 -5 -5 -4 -4 -4 -3 -4 -4 -4 -4 -3 -3 -3 -3 -3 -3 -3 -3 -3 -4 -4 -4 -5 -6 -6 -7 -6 -6 -6 -6 -6 -6 -6 -6 -6 -7 -7 -7 -7 -7 -7 -7 -7
-5 -5 -5 -5 -4 -4 -4 -4 -4 -3 -3 -3 -3 -3 -3 -3 -3 -3 -3 -3 -4 -4 -5 -6 -6 -7 -6 -6 -6 -6 -6 -6 -7 -7 -7 -7 -7 -7 -7 -7 -7 -7 -7 -8
-5 -5 -5 -5 -5 -5 -4 -4 -4 -4 -4 -4 -4 -4 -4 -4 -4 -4 -4 -4 -5 -5 -6 -6 -6 -6 -6 -6 -6 -6 -6 -7 -7 -7 -7 -7 -7 -7 -8 -7 -7 -7 -7 -8
-5 -5 -5 -5 -5 -5 -4 -4 -4 -4 -4 -4 -4 -4 -4 -4 -4 -4 -4 -5 -5 -5 -5 -5 -5 -6 -6 -6 -6 -7 -7 -7 -7 -8 -8 -8 -8 -8 -8 -8 -8 -8 -8 -8
-5 -5 -5 -5 -4 -4 -4 -4 -4 -3 -3 -3 -4 -4 -4 -4 -4 -4 -4 -5 -6 -6 -6 -7 -6 -7 -7 -7 -7 -7 -7 -8 -8 -8 -9 -9 -9 -9 -8 -8 -8 -8 -8 -9
-5 -5 -4 -4 -4 -4 -4 -4 -4 -3 -3 -3 -3 -3 -4 -4 -4 -4 -4 -4 -4 -5 -5 -6 -8 -8 -7 -8 -9 -9 -10 -10 -9 -10 -10 -10 -9 -9 -9 -9 -9 -9 -9 -10

GFSNGP_700_temp_066.txt.gz
Temp
-3 -3 -3 -3 -3 -3 -3 -3 -2 -1 -0 -1 -1 -1 -1 -1 -1 -1 -1 -2 -2 -0 2 2 2 3 2 2 2 2 2 2 2 1 1 0 -0 -1 -1 -1 -2 -2 -2 -2
-3 -3 -4 -3 -3 -3 -3 -4 -3 -2 -0 -1 -1 -1 -1 -1 -1 -1 -2 -2 -2 0 1 2 2 2 2 2 2 2 2 2 1 1 0 -0 -0 -1 -1 -1 -1 -1 -2 -3
-3 -3 -3 -2 -2 -2 -2 -2 -2 -2 -1 -1 -1 -1 -1 -1 -1 -2 -2 -2 -1 -1 1 1 2 2 2 1 2 1 2 1 1 0 -0 -1 -1 -1 -1 -2 -2 -2 -3 -3
-4 -3 -2 -2 -2 -2 -2 -2 -2 -1 -1 -1 -1 -1 -1 -1 -1 -2 -2 -2 -1 -0 1 1 1 1 1 1 1 0 0 -0 0 0 -0 -1 -1 -2 -2 -2 -2 -3 -4 -4
-4 -3 -2 -2 -2 -2 -2 -2 -1 -1 -1 -1 -1 -1 -1 -1 -1 -2 -3 -2 -0 0 0 1 1 1 0 1 0 -0 -1 -1 -1 -1 -1 -1 -1 -2 -3 -4 -3 -3 -4 -4
-5 -4 -2 -2 -2 -2 -2 -2 -2 -1 -2 -2 -1 -1 -1 -1 -2 -2 -2 -0 0 1 0 1 1 0 -1 -0 -1 -1 -2 -2 -4 -3 -2 -2 -2 -3 -4 -4 -4 -4 -4 -5
-4 -4 -3 -3 -2 -3 -2 -2 -2 -2 -1 -1 -1 -1 -1 -2 -2 -2 -1 -0 -0 -0 0 0 0 -1 -1 -1 -2 -2 -2 -2 -4 -4 -3 -3 -3 -3 -3 -4 -4 -4 -4 -4
-5 -4 -3 -3 -3 -3 -3 -2 -2 -2 -2 -1 -1 -1 -1 -2 -2 -2 -1 -1 0 -0 -1 -0 0 0 -0 -3 -3 -3 -3 -4 -4 -3 -3 -3 -3 -3 -3 -4 -4 -4 -4 -4
-4 -4 -3 -3 -3 -3 -3 -2 -2 -2 -2 -2 -1 -1 -1 -2 -2 -1 -0 0 1 -1 -1 -1 -0 0 -0 -2 -2 -2 -3 -3 -3 -3 -3 -3 -3 -3 -3 -4 -3 -3 -4 -3
-4 -3 -3 -4 -3 -3 -3 -3 -3 -2 -2 -2 -2 -2 -2 -2 -2 -1 -1 -0 -0 -1 -1 -1 -1 -0 -1 -2 -2 -2 -3 -3 -2 -2 -3 -3 -3 -3 -3 -3 -3 -4 -4 -3
-4 -3 -3 -3 -4 -3 -3 -3 -3 -2 -2 -2 -2 -2 -2 -2 -2 -1 -1 -1 -1 -1 -1 -1 -1 -1 -2 -2 -2 -2 -2 -2 -3 -3 -3 -3 -3 -4 -4 -4 -4 -4 -3 -3
-4 -3 -3 -4 -4 -4 -3 -3 -3 -2 -2 -2 -2 -2 -2 -2 -2 -2 -2 -1 -1 -1 -1 -2 -2 -2 -2 -2 -2 -2 -2 -3 -3 -3 -4 -4 -4 -4 -4 -4 -4 -4 -3 -3
-4 -4 -4 -4 -4 -4 -3 -3 -3 -2 -2 -2 -2 -2 -2 -2 -2 -2 -2 -2 -2 -2 -2 -2 -2 -2 -2 -2 -3 -3 -3 -3 -3 -3 -4 -4 -4 -4 -4 -4 -4 -4 -3 -3
-4 -4 -4 -4 -4 -4 -4 -4 -3 -3 -2 -2 -2 -2 -2 -2 -2 -2 -2 -2 -2 -2 -2 -2 -2 -2 -2 -3 -3 -3 -3 -3 -4 -4 -4 -4 -4 -4 -4 -4 -4 -4 -4 -4
-4 -4 -4 -4 -4 -4 -4 -4 -4 -4 -3 -3 -2 -2 -2 -2 -2 -2 -2 -2 -2 -2 -2 -2 -2 -2 -3 -3 -3 -3 -3 -4 -4 -4 -4 -4 -4 -4 -4 -4 -4 -4 -4 -4
-5 -5 -4 -4 -4 -5 -5 -4 -4 -4 -3 -3 -3 -3 -2 -2 -2 -3 -2 -3 -3 -2 -3 -3 -3 -3 -3 -3 -3 -4 -4 -4 -4 -4 -4 -5 -5 -5 -5 -5 -5 -5 -5 -5
-6 -6 -6 -5 -5 -5 -5 -5 -4 -4 -4 -4 -4 -4 -4 -3 -2 -2 -3 -2 -3 -2 -3 -3 -4 -4 -4 -3 -4 -4 -4 -4 -4 -5 -5 -5 -5 -5 -5 -5 -5 -5 -5 -5
-6 -5 -5 -5 -5 -4 -4 -4 -5 -5 -4 -4 -4 -4 -4 -3 -3 -3 -3 -3 -3 -3 -3 -3 -3 -3 -4 -4 -4 -4 -4 -5 -5 -5 -5 -5 -5 -5 -5 -5 -6 -6 -6 -5
-5 -4 -4 -4 -4 -4 -3 -3 -3 -4 -4 -4 -4 -4 -4 -3 -3 -3 -3 -3 -3 -3 -3 -3 -3 -4 -4 -4 -4 -4 -4 -5 -5 -5 -5 -5 -5 -6 -6 -6 -6 -6 -6 -6
-5 -5 -5 -5 -5 -5 -4 -3 -2 -2 -3 -3 -4 -3 -3 -3 -3 -3 -3 -3 -3 -3 -3 -4 -4 -4 -4 -5 -5 -5 -5 -5 -5 -5 -5 -6 -6 -6 -6 -6 -6 -6 -6 -6
-6 -5 -5 -5 -5 -5 -4 -4 -3 -3 -3 -3 -3 -3 -3 -3 -3 -3 -3 -3 -3 -3 -3 -4 -4 -5 -5 -5 -5 -6 -6 -6 -6 -6 -6 -6 -6 -6 -6 -6 -7 -7 -7 -6
-6 -6 -5 -5 -5 -4 -4 -4 -4 -4 -4 -4 -4 -3 -3 -3 -4 -3 -3 -3 -3 -3 -3 -4 -4 -5 -5 -5 -5 -7 -7 -6 -6 -6 -6 -6 -6 -7 -7 -7 -7 -7 -7 -7
-5 -5 -6 -6 -5 -5 -4 -4 -4 -4 -4 -4 -4 -3 -4 -3 -3 -4 -4 -4 -3 -3 -4 -4 -5 -5 -6 -5 -6 -7 -6 -6 -6 -6 -6 -7 -7 -7 -7 -7 -7 -7 -7 -7
-5 -5 -5 -5 -5 -5 -5 -4 -4 -4 -4 -4 -4 -4 -4 -4 -3 -4 -4 -3 -3 -4 -4 -5 -5 -5 -6 -6 -7 -7 -6 -7 -7 -7 -7 -7 -7 -8 -8 -8 -8 -8 -8 -8
-6 -6 -6 -6 -6 -5 -6 -5 -5 -4 -4 -4 -4 -4 -4 -4 -4 -4 -4 -4 -4 -4 -5 -5 -5 -6 -6 -6 -6 -7 -7 -7 -7 -7 -8 -8 -8 -8 -8 -9 -9 -9 -8 -8
-6 -6 -5 -5 -5 -5 -5 -6 -5 -5 -5 -5 -4 -4 -4 -4 -4 -4 -4 -5 -5 -5 -6 -6 -7 -6 -7 -7 -7 -7 -7 -7 -8 -8 -9 -9 -9 -9 -9 -10 -9 -9 -9 -8
-6 -6 -5 -5 -5 -4 -4 -4 -4 -4 -4 -4 -4 -4 -4 -4 -4 -4 -4 -5 -5 -5 -5 -5 -6 -6 -8 -8 -8 -9 -9 -9 -10 -10 -9 -10 -10 -10 -10 -10 -10 -10 -9 -9

GFSNGP_700_temp_072.txt.gz
Temp
-2 -2 -2 -2 -2 -2 -2 -1 -0 -0 0 -0 -1 -1 -1 -2 -0 -0 -0 -1 -1 -1 -0 0 1 1 2 2 3 3 3 3 2 3 2 2 2 2 2 2 2 2 2 1
-2 -2 -2 -2 -2 -3 -3 -2 -1 -1 -1 -1 -1 -2 -2 -1 -0 -1 -1 -1 -1 -2 -2 -1 -0 0 1 2 2 2 2 2 2 2 2 2 1 1 1 2 2 2 1 1
-2 -2 -3 -3 -1 -2 -2 -1 -1 -1 -1 -1 -2 -2 -1 -1 -1 -1 -1 -1 -1 -2 -3 -1 -0 1 1 1 1 2 2 2 2 2 1 1 1 1 1 1 1 1 1 1
-3 -3 -3 -1 -1 -1 -2 -2 -2 -2 -2 -2 -2 -2 -1 -1 -1 -1 -1 -1 -2 -3 -3 -1 -1 0 0 0 1 1 1 1 1 1 1 1 1 1 1 1 0 0 0 0
-3 -2 -1 -1 -1 -1 -2 -2 -2 -2 -2 -2 -2 -1 -1 -1 -1 -1 -1 -2 -3 -3 -2 -1 -0 0 -0 0 0 0 1 1 0 1 1 1 1 1 1 0 -1 -1 -0 -1
-3 -3 -2 -2 -2 -2 -3 -2 -2 -2 -2 -2 -1 -1 -1 -1 -1 -2 -2 -3 -2 -1 -0 0 -0 -0 0 0 0 0 0 0 0 0 0 -0 0 0 -0 -1 -1 -1 -1 -1
-3 -3 -2 -2 -2 -2 -2 -2 -2 -2 -2 -2 -1 -1 -1 -1 -1 -2 -3 -2 -2 -1 -0 -1 -0 -0 0 -0 -1 -1 0 -0 -1 -1 -1 -1 -1 -1 -1 -1 -1 -1 -1 -1
-4 -3 -3 -2 -3 -3 -2 -2 -2 -2 -2 -2 -1 -1 -1 -1 -2 -2 -2 -2 -1 -0 -1 -1 -0 -0 -1 -1 -2 -2 -1 -1 -1 -2 -2 -1 -1 -1 -1 -1 -1 -1 -1 -2
-3 -3 -3 -3 -3 -3 -3 -3 -2 -2 -2 -2 -1 -1 -2 -2 -2 -2 -2 -2 -1 -0 -1 -1 -1 -1 -1 -2 -2 -2 -1 -2 -2 -2 -2 -2 -2 -2 -2 -1 -1 -1 -2 -2
-3 -3 -3 -3 -3 -3 -3 -3 -2 -3 -2 -2 -2 -2 -2 -3 -2 -3 -2 -1 -1 -1 -1 -1 -0 -0 -0 -1 -2 -2 -2 -2 -2 -2 -2 -2 -2 -2 -2 -2 -2 -2 -2 -2
-3 -3 -3 -3 -3 -3 -3 -3 -3 -3 -3 -3 -2 -2 -2 -2 -2 -2 -2 -1 -1 -1 -1 -1 -0 -0 -0 -1 -1 -1 -2 -2 -2 -2 -2 -2 -2 -2 -2 -2 -2 -2 -3 -3
-3 -3 -4 -3 -3 -3 -3 -3 -3 -3 -3 -3 -3 -2 -2 -2 -3 -3 -2 -2 -1 -1 -1 -1 -1 -1 -1 -1 -2 -2 -2 -2 -2 -2 -2 -2 -2 -2 -2 -3 -3 -3 -3 -3
-4 -4 -4 -4 -4 -3 -3 -3 -3 -3 -3 -3 -3 -2 -2 -2 -2 -3 -2 -2 -2 -2 -1 -2 -2 -2 -2 -2 -2 -2 -2 -2 -2 -2 -2 -3 -3 -3 -3 -3 -3 -3 -3 -3
-3 -3 -4 -4 -4 -3 -3 -3 -3 -4 -3 -3 -2 -2 -2 -2 -2 -2 -2 -2 -2 -2 -2 -2 -2 -2 -2 -2 -2 -2 -2 -2 -3 -3 -3 -3 -3 -3 -3 -4 -4 -4 -4 -4
-3 -4 -4 -4 -4 -4 -3 -3 -3 -3 -4 -4 -3 -3 -3 -3 -3 -3 -2 -2 -3 -2 -3 -2 -2 -2 -2 -2 -2 -2 -3 -3 -3 -3 -3 -3 -3 -4 -4 -4 -4 -4 -4 -4
-5 -5 -5 -5 -4 -4 -4 -4 -3 -3 -3 -4 -4 -4 -4 -4 -3 -3 -3 -3 -3 -3 -3 -3 -3 -3 -2 -2 -2 -3 -3 -3 -3 -3 -3 -3 -4 -4 -4 -4 -4 -5 -5 -5
-5 -5 -6 -6 -6 -6 -5 -4 -4 -4 -4 -4 -4 -5 -5 -5 -4 -4 -4 -4 -3 -3 -4 -3 -3 -3 -3 -3 -3 -3 -3 -3 -3 -4 -4 -4 -4 -4 -4 -5 -5 -5 -5 -5
-6 -6 -6 -6 -6 -6 -6 -5 -5 -4 -4 -4 -5 -5 -5 -4 -4 -4 -4 -4 -4 -4 -4 -4 -3 -3 -3 -3 -3 -4 -4 -4 -4 -4 -4 -4 -4 -4 -5 -5 -5 -5 -5 -6
-6 -6 -6 -6 -5 -5 -5 -5 -4 -4 -4 -4 -4 -4 -4 -5 -4 -4 -4 -4 -4 -4 -4 -4 -4 -4 -3 -3 -3 -3 -4 -4 -4 -4 -4 -4 -5 -5 -5 -5 -5 -6 -6 -6
-6 -6 -5 -5 -5 -5 -5 -5 -5 -6 -6 -5 -4 -3 -3 -4 -5 -5 -5 -5 -5 -4 -4 -4 -3 -3 -4 -4 -4 -4 -4 -4 -5 -5 -5 -5 -5 -5 -5 -6 -6 -6 -6 -6
-5 -5 -6 -5 -6 -6 -6 -6 -5 -5 -5 -5 -5 -4 -3 -3 -4 -5 -5 -5 -4 -4 -4 -4 -4 -4 -4 -4 -4 -4 -5 -5 -4 -7 -7 -7 -7 -6 -6 -6 -6 -6 -7 -7
-6 -6 -6 -6 -6 -6 -6 -5 -5 -5 -4 -5 -5 -5 -4 -3 -4 -4 -4 -4 -4 -4 -4 -4 -4 -4 -4 -4 -4 -5 -5 -6 -6 -6 -5 -6 -7 -7 -7 -6 -7 -7 -7 -7
-6 -6 -6 -6 -6 -6 -6 -6 -6 -5 -5 -5 -5 -5 -5 -4 -4 -4 -4 -4 -4 -4 -4 -4 -4 -4 -4 -4 -4 -4 -6 -6 -6 -6 -6 -6 -6 -8 -7 -7 -7 -7 -7 -8
-6 -6 -6 -6 -6 -6 -6 -6 -6 -6 -6 -6 -5 -5 -5 -5 -4 -4 -4 -4 -4 -4 -4 -4 -4 -4 -4 -4 -4 -5 -5 -6 -6 -6 -6 -7 -7 -8 -7 -7 -8 -8 -8 -8
-7 -7 -7 -6 -6 -6 -6 -5 -5 -5 -6 -5 -5 -5 -5 -5 -5 -5 -5 -4 -4 -4 -4 -4 -4 -4 -4 -4 -5 -5 -6 -6 -7 -7 -7 -7 -7 -8 -9 -8 -8 -8 -9 -9
-7 -7 -7 -6 -6 -6 -5 -5 -5 -5 -5 -5 -5 -5 -6 -5 -5 -5 -5 -5 -5 -4 -4 -4 -4 -4 -4 -4 -5 -5 -6 -6 -7 -7 -8 -7 -8 -9 -9 -9 -9 -9 -9 -10
-8 -7 -7 -7 -6 -6 -6 -6 -6 -6 -6 -5 -5 -5 -5 -6 -5 -5 -5 -5 -5 -5 -5 -5 -5 -5 -5 -5 -5 -5 -6 -6 -7 -7 -8 -8 -8 -9 -9 -9 -9 -9 -9 -9

GFSNGP_700_temp_075.txt.gz
Temp
-2 -1 -1 -1 -1 -1 -1 -1 -0 -0 -0 1 -0 -1 -2 -1 -1 -1 -0 0 0 -0 -1 -1 -0 0 1 2 2 2 3 3 3 3 3 3 3 2 2 2 2 2 1 2
-2 -2 -2 -2 -2 -2 -2 -2 -1 -1 -0 0 -0 -1 -1 -1 -1 -0 -0 -1 -1 -1 -1 -2 -2 -1 -0 1 1 2 2 2 2 2 2 2 2 2 2 2 2 1 1 1
-2 -3 -3 -3 -1 -1 -1 -1 -1 -1 -1 -1 -1 -2 -1 -1 -1 -1 -1 -1 -1 -1 -2 -2 -2 -1 -0 0 1 1 1 2 2 2 2 2 2 2 2 1 1 1 1 1
-3 -3 -4 -1 -1 -1 -1 -1 -2 -1 -1 -1 -2 -2 -2 -1 -1 -1 -1 -1 -1 -2 -2 -3 -2 -2 -1 -0 0 0 1 1 1 1 1 1 1 1 1 1 0 0 0 -0
-3 -3 -2 -1 -1 -1 -1 -1 -1 -1 -2 -2 -2 -2 -1 -1 -1 -1 -1 -2 -2 -3 -3 -2 -2 -2 -0 -0 -1 -0 1 1 1 1 1 1 1 1 1 0 -1 -1 -1 -1
-4 -4 -3 -2 -2 -2 -2 -3 -2 -2 -2 -3 -2 -2 -1 -1 -1 -2 -2 -2 -3 -3 -3 -2 -1 -1 -0 -0 -0 -0 0 0 0 0 0 0 0 -0 -0 -1 -1 -1 -1 -1
-4 -3 -3 -2 -2 -2 -3 -2 -2 -2 -2 -2 -2 -2 -2 -1 -1 -2 -2 -3 -3 -2 -2 -2 -1 -0 -0 -0 -1 -1 0 0 -0 -0 -0 -1 -1 -1 -1 -1 -1 -1 -1 -1
-4 -4 -4 -3 -3 -3 -2 -2 -3 -2 -2 -2 -2 -2 -1 -1 -2 -2 -2 -3 -2 -2 -1 -1 -1 -1 -1 -2 -2 -1 -1 -1 -1 -1 -1 -1 -1 -1 -1 -2 -2 -2 -2 -1
-4 -3 -3 -3 -3 -3 -3 -3 -2 -2 -2 -2 -2 -2 -2 -2 -2 -2 -2 -3 -2 -2 -1 -2 -2 -1 -1 -2 -2 -2 -2 -2 -2 -2 -2 -1 -2 -2 -2 -2 -2 -2 -2 -2
-3 -3 -3 -3 -3 -3 -3 -3 -3 -3 -3 -2 -2 -2 -2 -3 -2 -3 -3 -3 -2 -1 -1 -1 -1 -1 -1 -1 -2 -2 -2 -2 -2 -2 -2 -2 -2 -2 -2 -2 -2 -2 -2 -2
-4 -4 -4 -3 -3 -3 -3 -3 -3 -3 -3 -3 -3 -3 -3 -2 -2 -2 -3 -3 -2 -2 -1 -1 -1 -1 -1 -1 -1 -2 -2 -2 -2 -2 -2 -2 -3 -2 -3 -2 -2 -2 -2 -3
-4 -4 -3 -4 -4 -3 -3 -3 -3 -3 -3 -4 -3 -3 -3 -3 -2 -3 -3 -3 -2 -2 -1 -1 -1 -1 -1 -1 -1 -2 -2 -2 -2 -2 -3 -3 -3 -3 -3 -3 -3 -3 -3 -3
-4 -4 -4 -4 -4 -4 -4 -4 -4 -4 -3 -3 -3 -3 -3 -3 -2 -2 -3 -3 -2 -2 -2 -2 -2 -1 -1 -2 -2 -2 -2 -2 -2 -3 -3 -3 -3 -3 -3 -3 -3 -4 -4 -4
-4 -4 -4 -4 -4 -4 -4 -4 -4 -4 -4 -4 -4 -3 -3 -3 -3 -3 -3 -3 -3 -3 -3 -2 -2 -2 -2 -2 -2 -2 -2 -2 -2 -3 -3 -3 -3 -3 -3 -4 -4 -4 -4 -4
-3 -4 -4 -4 -4 -4 -4 -4 -4 -4 -4 -4 -4 -4 -4 -4 -3 -3 -3 -3 -2 -3 -3 -3 -3 -3 -3 -3 -2 -2 -2 -2 -3 -3 -3 -3 -3 -4 -4 -4 -4 -4 -4 -5
-4 -4 -5 -5 -5 -4 -4 -4 -4 -4 -4 -4 -4 -4 -4 -4 -4 -4 -4 -3 -3 -3 -4 -3 -3 -3 -3 -3 -3 -3 -3 -3 -3 -3 -3 -4 -4 -4 -4 -4 -4 -5 -5 -5
-5 -5 -5 -6 -6 -6 -6 -6 -5 -5 -5 -4 -4 -4 -4 -5 -5 -5 -4 -4 -4 -4 -4 -4 -3 -3 -3 -3 -3 -3 -3 -3 -3 -3 -4 -4 -4 -4 -4 -5 -5 -5 -5 -5
-6 -6 -6 -6 -6 -6 -7 -7 -5 -5 -5 -5 -5 -4 -5 -4 -5 -5 -5 -4 -5 -5 -5 -5 -5 -5 -4 -3 -3 -3 -4 -4 -4 -4 -4 -4 -4 -4 -5 -5 -5 -5 -5 -5
-6 -7 -7 -7 -6 -6 -6 -5 -5 -4 -4 -5 -5 -5 -5 -5 -5 -5 -5 -5 -4 -4 -5 -4 -4 -5 -4 -4 -4 -4 -4 -4 -4 -5 -5 -5 -5 -5 -5 -5 -6 -6 -6 -6
-6 -6 -6 -6 -6 -5 -5 -5 -5 -4 -4 -5 -6 -6 -5 -5 -4 -4 -5 -5 -5 -5 -4 -4 -4 -4 -4 -4 -4 -5 -5 -5 -4 -4 -5 -6 -6 -6 -7 -7 -6 -6 -6 -6
-6 -6 -6 -6 -6 -6 -6 -7 -7 -6 -6 -6 -6 -5 -5 -5 -4 -3 -3 -4 -5 -5 -5 -5 -5 -5 -4 -4 -4 -4 -4 -4 -4 -5 -5 -5 -7 -7 -8 -8 -8 -8 -8 -7
-6 -6 -6 -6 -6 -6 -6 -6 -6 -6 -5 -5 -5 -5 -5 -5 -5 -4 -3 -4 -5 -5 -5 -5 -5 -4 -5 -4 -4 -4 -4 -4 -5 -5 -6 -6 -6 -6 -6 -7 -8 -8 -8 -7
-6 -6 -6 -6 -6 -6 -6 -6 -6 -6 -6 -5 -5 -5 -6 -5 -5 -5 -4 -4 -5 -5 -5 -5 -5 -5 -4 -4 -4 -4 -4 -4 -5 -6 -6 -7 -6 -6 -7 -7 -7 -9 -8 -8
-7 -7 -7 -7 -6 -6 -6 -6 -6 -6 -6 -6 -6 -6 -5 -5 -5 -5 -5 -5 -4 -4 -5 -5 -5 -5 -5 -4 -5 -4 -4 -4 -5 -6 -7 -7 -7 -7 -7 -8 -7 -10 -9 -9
-7 -7 -7 -7 -7 -6 -6 -6 -6 -5 -5 -5 -5 -6 -6 -5 -5 -5 -5 -5 -5 -5 -5 -5 -4 -4 -4 -4 -4 -5 -5 -5 -6 -6 -7 -7 -7 -7 -8 -8 -8 -9 -9 -10
-8 -8 -8 -8 -7 -7 -6 -6 -6 -6 -6 -6 -5 -5 -5 -5 -5 -5 -5 -5 -5 -5 -5 -5 -5 -4 -4 -4 -4 -4 -5 -5 -6 -6 -7 -7 -7 -8 -8 -8 -8 -8 -9 -10
-8 -8 -8 -8 -8 -7 -7 -7 -7 -7 -7 -7 -7 -6 -6 -6 -6 -6 -6 -6 -5 -5 -5 -5 -5 -5 -5 -5 -5 -5 -5 -5 -6 -6 -7 -7 -7 -7 -8 -8 -8 -8 -9 -9

GFSNGP_700_temp_078.txt.gz
Temp
-2 -2 -2 -1 -1 -2 -3 -2 -1 -0 0 2 2 1 -0 -1 -1 -1 -1 -1 -0 -0 0 0 0 0 1 1 1 2 2 2 3 3 3 3 3 3 3 3 3 2 2 2
-2 -2 -2 -2 -2 -2 -2 -2 -2 -1 -0 1 1 -1 -1 -1 -2 -1 -1 -1 -1 -1 -1 -1 -1 -1 -1 -0 0 1 1 2 2 3 3 2 2 2 2 2 2 2 2 2
-2 -3 -3 -3 -0 -1 -1 -1 -1 -2 -0 0 1 -0 -1 -1 -1 -1 -1 -1 -1 -1 -1 -1 -2 -2 -1 -1 -0 0 0 1 2 2 2 2 2 2 1 1 1 1 1 1
-3 -3 -5 -1 -1 -1 -1 -1 -1 -2 -1 -0 0 -1 -1 -1 -1 -1 -1 -1 -1 -1 -2 -2 -3 -3 -2 -2 -1 -0 -0 0 1 1 1 1 1 1 1 1 1 1 1 0
-3 -4 -2 -1 -1 -1 -1 -1 -1 -1 -2 -1 -1 -2 -1 -2 -1 -1 -1 -1 -1 -2 -2 -3 -3 -3 -2 -2 -1 -0 -1 -1 0 0 0 0 0 0 0 1 0 -0 -1 -0
-4 -4 -4 -2 -2 -2 -2 -2 -1 -2 -2 -2 -2 -2 -2 -2 -2 -2 -1 -2 -2 -3 -3 -3 -3 -2 -2 -1 -0 -1 -1 -1 -0 -0 -0 -0 0 0 -0 -0 -1 -1 -1 -1
-4 -4 -3 -2 -2 -3 -3 -2 -2 -2 -2 -3 -2 -2 -2 -2 -2 -2 -2 -2 -2 -3 -3 -3 -2 -2 -1 -1 -1 -1 -1 -1 -0 -1 -1 -1 -1 -1 -1 -2 -1 -1 -1 -1
-4 -4 -4 -3 -3 -3 -2 -2 -3 -2 -2 -2 -2 -2 -2 -2 -2 -2 -2 -2 -3 -3 -3 -2 -2 -1 -1 -2 -2 -2 -2 -1 -2 -2 -2 -1 -1 -2 -2 -2 -1 -1 -1 -1
-4 -4 -3 -3 -3 -3 -3 -3 -3 -2 -3 -3 -2 -2 -2 -2 -2 -2 -3 -2 -3 -3 -2 -2 -2 -3 -3 -3 -3 -3 -2 -3 -2 -2 -2 -2 -2 -2 -2 -2 -2 -2 -1 -2
-4 -3 -3 -3 -3 -3 -3 -3 -3 -3 -3 -2 -2 -2 -2 -3 -3 -3 -3 -3 -3 -3 -2 -2 -2 -2 -2 -3 -3 -3 -3 -3 -3 -3 -3 -2 -2 -2 -2 -2 -2 -2 -2 -2
-4 -4 -3 -3 -3 -4 -4 -4 -4 -3 -3 -3 -3 -3 -3 -3 -3 -3 -2 -3 -3 -3 -2 -2 -2 -2 -2 -2 -3 -4 -3 -3 -3 -3 -3 -3 -2 -2 -2 -2 -2 -2 -3 -3
-4 -4 -3 -3 -4 -4 -4 -4 -4 -4 -4 -3 -4 -4 -3 -3 -3 -3 -3 -3 -3 -3 -2 -2 -2 -1 -1 -1 -2 -2 -3 -3 -3 -3 -3 -3 -3 -3 -3 -3 -3 -3 -3 -3
-4 -4 -4 -4 -4 -4 -4 -4 -4 -4 -4 -4 -4 -4 -3 -3 -3 -3 -3 -3 -3 -3 -3 -2 -2 -2 -1 -1 -2 -2 -3 -3 -3 -3 -3 -3 -3 -3 -3 -3 -3 -3 -3 -3
-4 -4 -4 -4 -4 -4 -4 -4 -4 -4 -4 -4 -3 -4 -4 -3 -3 -3 -3 -3 -3 -3 -3 -3 -2 -2 -2 -2 -2 -2 -2 -2 -2 -3 -3 -3 -3 -3 -3 -3 -3 -4 -4 -4
-4 -4 -4 -4 -4 -4 -4 -4 -4 -4 -4 -4 -4 -4 -4 -4 -4 -4 -3 -3 -3 -3 -3 -3 -3 -3 -2 -3 -3 -3 -3 -3 -3 -3 -3 -3 -3 -3 -3 -4 -4 -4 -4 -4
-4 -4 -4 -4 -4 -4 -4 -4 -4 -5 -4 -4 -4 -4 -4 -4 -4 -4 -4 -4 -4 -4 -4 -4 -4 -3 -3 -3 -3 -3 -3 -3 -3 -3 -3 -3 -3 -4 -4 -4 -4 -4 -4 -5
-5 -5 -5 -6 -5 -5 -5 -6 -7 -7 -5 -5 -5 -5 -4 -4 -4 -4 -5 -4 -4 -4 -4 -4 -4 -4 -3 -3 -3 -3 -3 -3 -3 -4 -4 -4 -4 -4 -4 -4 -4 -5 -5 -5
-5 -7 -6 -6 -6 -6 -6 -6 -7 -6 -5 -4 -4 -4 -5 -5 -5 -5 -5 -6 -5 -5 -5 -5 -5 -5 -5 -4 -4 -3 -3 -3 -4 -4 -4 -4 -4 -4 -4 -4 -5 -5 -5 -5
-5 -6 -6 -7 -7 -7 -7 -6 -5 -5 -5 -4 -4 -4 -5 -5 -5 -5 -5 -4 -5 -5 -5 -5 -6 -6 -6 -5 -5 -5 -4 -4 -4 -4 -5 -6 -6 -5 -5 -5 -5 -6 -6 -6
-6 -6 -6 -6 -6 -6 -6 -6 -6 -5 -5 -4 -4 -4 -5 -6 -6 -6 -5 -5 -5 -5 -5 -5 -5 -5 -5 -4 -4 -4 -4 -4 -4 -5 -5 -4 -5 -5 -7 -6 -6 -7 -7 -8
-6 -6 -6 -6 -6 -6 -6 -6 -7 -6 -6 -6 -5 -5 -6 -6 -6 -6 -6 -5 -5 -4 -5 -5 -5 -5 -5 -5 -5 -5 -5 -5 -5 -5 -5 -5 -5 -5 -5 -7 -8 -8 -8 -8
-6 -6 -6 -6 -6 -6 -6 -6 -6 -6 -6 -6 -6 -5 -6 -6 -6 -6 -6 -5 -4 -3 -4 -5 -5 -5 -5 -5 -5 -5 -5 -5 -5 -5 -5 -5 -5 -6 -6 -7 -7 -6 -6 -8
-7 -7 -6 -6 -6 -7 -7 -6 -6 -6 -6 -6 -6 -6 -6 -6 -6 -6 -6 -6 -5 -4 -4 -5 -5 -5 -5 -5 -5 -5 -5 -5 -5 -5 -5 -5 -6 -7 -7 -7 -7 -7 -7 -8
-7 -7 -7 -7 -7 -7 -7 -6 -6 -6 -6 -6 -5 -6 -6 -6 -6 -6 -7 -7 -7 -6 -5 -5 -5 -5 -5 -5 -5 -5 -5 -5 -5 -5 -5 -5 -6 -7 -8 -8 -8 -8 -8 -8
-7 -7 -8 -8 -8 -7 -7 -7 -6 -6 -6 -6 -6 -5 -5 -5 -6 -6 -6 -5 -5 -5 -5 -5 -5 -5 -5 -5 -5 -5 -5 -5 -5 -5 -5 -5 -6 -7 -7 -8 -8 -8 -8 -8
-8 -8 -8 -8 -8 -8 -8 -8 -7 -7 -7 -7 -6 -6 -6 -6 -6 -6 -6 -6 -6 -6 -6 -5 -5 -5 -5 -5 -5 -5 -5 -5 -5 -5 -6 -6 -6 -7 -7 -8 -8 -8 -8 -8
-9 -9 -9 -9 -9 -9 -8 -8 -8 -8 -8 -8 -8 -8 -7 -7 -7 -6 -6 -6 -6 -6 -5 -6 -6 -5 -5 -5 -5 -5 -5 -5 -5 -5 -5 -6 -6 -6 -7 -7 -7 -8 -8 -8

GFSNGP_700_temp_081.txt.gz
Temp
-2 -2 -2 -2 -1 -3 -3 -3 -3 -2 -1 0 1 1 2 1 -0 -1 -1 -1 -1 -0 -0 -0 -0 -0 0 0 1 1 2 2 2 2 3 2 3 3 3 3 3 2 2 2
-2 -2 -2 -2 -2 -3 -2 -2 -3 -2 -1 0 1 1 1 -0 -1 -1 -1 -1 -1 -1 -0 -0 -1 -1 -1 -1 -1 -0 0 1 1 2 2 2 2 2 2 2 2 2 2 1
-2 -3 -3 -3 -1 -1 -1 -1 -2 -3 -0 -1 0 1 0 -0 -1 -1 -1 -1 -1 -1 -1 -1 -1 -1 -1 -2 -2 -1 -1 -0 0 1 1 2 2 2 2 1 1 1 1 1
-3 -3 -5 -1 -1 -1 -1 -1 -2 -2 -1 -1 -1 0 -1 -1 -1 -1 -2 -1 -1 -1 -1 -2 -2 -2 -2 -2 -2 -2 -2 -1 -0 0 1 1 1 1 1 1 0 0 0 0
-3 -4 -2 -1 -1 -1 -1 -1 -2 -1 -1 -2 -2 -1 -1 -1 -2 -2 -1 -1 -1 -1 -2 -2 -2 -3 -3 -3 -3 -2 -2 -1 -0 -0 0 0 0 0 0 0 -0 -0 -0 -0
-4 -4 -5 -2 -2 -2 -2 -2 -1 -1 -1 -2 -2 -1 -0 -1 -2 -2 -2 -2 -2 -2 -2 -2 -3 -3 -3 -3 -2 -2 -2 -1 -1 -1 -1 -0 0 -0 -0 -0 -0 -0 -1 -1
-4 -4 -3 -3 -3 -2 -3 -2 -2 -2 -2 -2 -2 -2 -2 -2 -2 -2 -2 -2 -2 -2 -2 -3 -3 -3 -3 -3 -2 -2 -2 -1 -1 -1 -1 -0 -1 -1 -1 -1 -1 -1 -1 -1
-5 -4 -5 -3 -3 -3 -3 -3 -3 -2 -2 -2 -3 -3 -2 -2 -2 -2 -2 -2 -3 -3 -3 -3 -3 -3 -3 -3 -3 -3 -2 -2 -1 -1 -1 -1 -1 -1 -2 -2 -2 -2 -1 -1
-4 -4 -4 -4 -3 -3 -3 -3 -3 -3 -3 -3 -3 -3 -3 -3 -2 -2 -2 -3 -3 -3 -3 -3 -3 -2 -3 -4 -3 -3 -3 -3 -2 -2 -2 -2 -2 -2 -2 -2 -2 -2 -2 -1
-4 -3 -4 -4 -3 -3 -4 -3 -3 -3 -3 -3 -3 -3 -3 -3 -3 -3 -3 -3 -3 -3 -4 -3 -2 -2 -3 -4 -4 -4 -4 -3 -3 -3 -3 -3 -2 -2 -2 -2 -2 -2 -2 -2
-4 -4 -4 -4 -4 -4 -4 -4 -4 -4 -4 -3 -3 -3 -3 -3 -3 -3 -3 -3 -3 -3 -3 -3 -2 -2 -2 -3 -3 -4 -4 -4 -3 -3 -3 -3 -3 -3 -3 -2 -2 -2 -2 -2
-4 -4 -4 -4 -4 -4 -4 -4 -4 -4 -4 -4 -4 -4 -4 -4 -4 -3 -3 -3 -3 -3 -3 -3 -2 -2 -2 -2 -2 -3 -4 -3 -3 -4 -3 -3 -3 -3 -3 -3 -3 -3 -3 -3
-4 -4 -4 -4 -4 -4 -4 -4 -4 -4 -4 -4 -4 -4 -4 -4 -4 -3 -3 -3 -3 -3 -3 -3 -2 -2 -2 -2 -2 -2 -2 -3 -3 -4 -3 -3 -3 -3 -3 -3 -3 -3 -3 -3
-5 -4 -4 -4 -4 -4 -4 -4 -4 -4 -4 -4 -4 -4 -4 -4 -3 -3 -3 -3 -3 -3 -3 -3 -3 -3 -2 -2 -2 -2 -2 -2 -3 -4 -3 -3 -3 -3 -3 -3 -3 -3 -4 -4
-4 -4 -5 -5 -4 -4 -4 -4 -4 -4 -4 -4 -4 -4 -4 -4 -4 -4 -4 -4 -4 -3 -4 -3 -3 -3 -3 -3 -2 -2 -2 -3 -3 -3 -3 -3 -3 -3 -3 -3 -4 -4 -4 -4
-5 -5 -5 -5 -5 -5 -4 -4 -5 -5 -5 -5 -5 -5 -4 -4 -4 -4 -4 -4 -4 -4 -4 -4 -4 -4 -3 -3 -3 -3 -3 -3 -3 -3 -3 -3 -3 -4 -4 -4 -4 -4 -4 -4
-5 -5 -5 -5 -6 -6 -5 -5 -5 -6 -6 -6 -5 -4 -5 -5 -4 -4 -4 -4 -4 -5 -4 -4 -4 -4 -4 -4 -3 -4 -4 -4 -3 -3 -3 -3 -4 -4 -4 -4 -4 -4 -4 -4
-6 -6 -7 -6 -7 -7 -6 -6 -7 -7 -7 -7 -5 -4 -4 -4 -4 -4 -4 -4 -5 -5 -5 -6 -5 -5 -5 -5 -5 -4 -4 -4 -3 -3 -4 -4 -4 -4 -4 -4 -4 -5 -5 -5
-6 -6 -6 -6 -6 -7 -7 -7 -7 -6 -5 -5 -5 -4 -4 -4 -4 -4 -5 -5 -5 -5 -6 -6 -5 -5 -6 -5 -5 -5 -4 -4 -4 -4 -4 -4 -4 -4 -5 -5 -6 -5 -6 -6
-7 -7 -6 -6 -6 -6 -6 -6 -6 -6 -6 -5 -5 -4 -4 -5 -5 -5 -6 -5 -6 -5 -5 -6 -6 -6 -5 -5 -5 -6 -6 -5 -5 -5 -4 -5 -5 -5 -5 -5 -5 -5 -6 -8
-7 -6 -6 -6 -6 -6 -6 -6 -6 -6 -6 -6 -6 -6 -6 -5 -6 -7 -7 -6 -6 -6 -7 -6 -5 -5 -6 -5 -5 -5 -5 -5 -5 -5 -5 -5 -5 -5 -5 -5 -5 -6 -6 -6
-7 -7 -6 -6 -6 -6 -6 -6 -6 -6 -6 -6 -6 -6 -6 -6 -6 -6 -6 -6 -6 -7 -6 -5 -4 -4 -5 -5 -5 -5 -5 -5 -5 -5 -5 -5 -5 -5 -5 -5 -6 -6 -7 -7
-7 -7 -7 -7 -7 -7 -7 -7 -7 -6 -6 -6 -6 -5 -5 -6 -6 -6 -6 -6 -6 -6 -7 -6 -5 -4 -4 -5 -5 -5 -5 -5 -5 -5 -5 -5 -5 -5 -5 -6 -6 -6 -7 -7
-7 -7 -7 -7 -7 -7 -7 -7 -7 -7 -6 -6 -6 -6 -5 -6 -5 -5 -6 -6 -6 -7 -7 -7 -6 -5 -5 -5 -5 -5 -6 -5 -5 -5 -6 -6 -5 -6 -6 -5 -6 -6 -7 -7
-8 -8 -8 -8 -8 -8 -8 -8 -8 -7 -7 -7 -7 -6 -6 -6 -6 -6 -6 -6 -6 -6 -6 -6 -6 -6 -6 -6 -6 -6 -6 -6 -6 -6 -6 -6 -5 -5 -5 -5 -6 -6 -7 -8
-8 -8 -8 -8 -8 -9 -9 -9 -8 -8 -8 -8 -8 -7 -7 -7 -7 -7 -7 -7 -6 -6 -6 -6 -6 -6 -6 -6 -6 -6 -6 -6 -6 -5 -5 -5 -5 -5 -5 -6 -6 -7 -7 -8
-8 -9 -9 -9 -9 -9 -9 -9 -9 -9 -8 -8 -8 -8 -8 -8 -8 -8 -8 -8 -7 -7 -7 -6 -6 -6 -6 -6 -6 -6 -6 -6 -6 -5 -5 -5 -5 -6 -6 -6 -6 -7 -7 -7

GFSNGP_700_temp_084.txt.gz
Temp
-2 -2 -2 -1 -1 -1 -2 -2 -3 -2 -2 0 0 -0 1 2 1 0 -0 -0 -1 -1 -1 -1 -1 -0 -0 -0 -0 0 1 1 2 2 2 2 3 3 2 3 3 3 3 3
-3 -3 -2 -3 -2 -2 -2 -2 -3 -2 -2 -1 -1 -0 0 1 1 -0 -1 -1 -1 -1 -1 -1 -1 -1 -1 -1 -0 -0 -0 0 1 1 2 2 2 2 2 2 2 2 2 2
-3 -3 -3 -3 -1 -1 -1 -1 -1 -3 2 -1 -1 -1 -1 -0 0 -1 -2 -2 -2 -2 -2 -1 -1 -1 -1 -1 -1 -1 -1 -1 -0 0 0 1 1 1 2 2 2 2 1 1
-3 -4 -5 -1 -1 -1 -1 -1 -1 -1 -0 -1 -1 -1 -1 -1 -1 -1 -2 -2 -2 -2 -1 -1 -2 -2 -2 -2 -2 -2 -2 -2 -2 -1 -1 0 0 1 1 1 1 1 1 0
-3 -4 -2 -1 -1 -2 -2 -1 -1 -1 -0 -1 -2 -2 -1 -1 -1 -1 -2 -2 -2 -2 -2 -2 -2 -2 -2 -2 -2 -2 -3 -2 -2 -1 -1 -1 -0 -0 0 0 0 0 0 -0
-4 -4 -5 -3 -3 -3 -2 -2 -2 -1 -1 -1 -2 -2 -1 -1 -1 -1 -2 -2 -2 -2 -2 -2 -2 -2 -3 -3 -4 -3 -3 -2 -2 -2 -1 -1 -1 -0 -0 -0 -0 -1 -1 -1
-5 -5 -3 -3 -3 -3 -3 -3 -2 -2 -1 -2 -2 -2 -2 -1 -2 -2 -2 -2 -2 -2 -2 -2 -2 -3 -3 -3 -3 -3 -3 -3 -3 -2 -1 -2 -2 -1 -1 -1 -1 -1 -1 -2
-5 -5 -5 -3 -3 -3 -3 -3 -3 -3 -2 -3 -3 -3 -3 -2 -2 -2 -2 -2 -2 -2 -2 -3 -3 -3 -3 -3 -3 -4 -5 -4 -4 -3 -2 -2 -2 -1 -2 -2 -2 -2 -2 -2
-4 -4 -4 -4 -4 -4 -4 -4 -4 -3 -3 -3 -4 -4 -3 -3 -3 -3 -3 -3 -3 -3 -3 -3 -3 -3 -3 -3 -4 -5 -5 -5 -5 -4 -3 -2 -2 -2 -2 -2 -3 -3 -3 -2
-4 -4 -4 -4 -4 -4 -4 -4 -4 -3 -4 -3 -3 -3 -3 -4 -3 -3 -3 -3 -3 -3 -3 -4 -4 -3 -3 -3 -4 -6 -5 -5 -5 -4 -3 -3 -3 -3 -3 -3 -3 -3 -2 -2
-4 -4 -4 -4 -4 -4 -4 -4 -4 -4 -4 -4 -4 -4 -3 -3 -3 -3 -3 -3 -3 -3 -3 -3 -3 -3 -3 -3 -3 -4 -4 -5 -5 -4 -4 -4 -4 -4 -4 -3 -3 -3 -3 -2
-5 -4 -4 -4 -4 -4 -4 -4 -4 -4 -4 -4 -4 -4 -4 -4 -4 -4 -4 -3 -3 -3 -3 -3 -3 -3 -3 -3 -3 -3 -5 -5 -5 -4 -4 -4 -4 -4 -3 -3 -3 -3 -3 -3
-5 -5 -4 -4 -4 -4 -4 -4 -4 -4 -4 -4 -4 -4 -4 -4 -4 -4 -4 -4 -3 -3 -3 -3 -3 -3 -3 -3 -3 -3 -3 -4 -5 -4 -4 -4 -4 -4 -3 -3 -3 -3 -3 -3
-5 -5 -5 -5 -5 -5 -5 -5 -5 -4 -4 -4 -4 -4 -4 -4 -4 -4 -4 -4 -4 -4 -4 -3 -3 -3 -3 -3 -3 -2 -2 -2 -3 -4 -4 -4 -4 -4 -3 -3 -3 -3 -3 -3
-4 -5 -5 -5 -5 -5 -5 -5 -5 -5 -5 -4 -4 -4 -4 -4 -4 -4 -4 -4 -4 -4 -4 -4 -4 -4 -3 -3 -3 -3 -3 -3 -3 -3 -4 -4 -4 -3 -3 -4 -4 -4 -3 -4
-5 -5 -5 -5 -5 -5 -5 -5 -5 -5 -5 -5 -5 -5 -4 -4 -5 -4 -4 -4 -4 -4 -4 -4 -4 -4 -4 -4 -4 -3 -3 -3 -3 -3 -3 -3 -3 -3 -4 -4 -4 -4 -4 -4
-5 -6 -5 -5 -5 -5 -5 -6 -6 -6 -6 -6 -7 -7 -6 -5 -4 -4 -4 -4 -4 -4 -4 -4 -5 -4 -4 -5 -4 -4 -4 -4 -4 -4 -3 -4 -4 -4 -4 -4 -4 -4 -4 -4
-6 -6 -6 -6 -6 -6 -7 -6 -7 -7 -7 -7 -7 -6 -5 -4 -4 -4 -4 -4 -5 -5 -5 -6 -6 -6 -5 -5 -5 -5 -4 -4 -4 -4 -4 -4 -4 -4 -4 -4 -4 -4 -4 -4
-7 -7 -6 -7 -7 -7 -7 -7 -7 -6 -6 -6 -5 -5 -4 -4 -4 -4 -4 -4 -5 -5 -5 -6 -6 -6 -6 -6 -6 -5 -5 -5 -4 -4 -4 -4 -4 -4 -4 -4 -4 -4 -5 -5
-7 -7 -7 -7 -7 -7 -6 -6 -6 -6 -6 -6 -6 -6 -5 -5 -5 -4 -5 -5 -5 -6 -5 -5 -6 -6 -6 -6 -6 -6 -5 -6 -5 -5 -5 -5 -5 -5 -5 -5 -5 -5 -6 -6
-7 -7 -7 -7 -6 -6 -6 -7 -7 -7 -7 -6 -6 -6 -6 -6 -6 -6 -7 -7 -7 -7 -7 -7 -6 -6 -7 -7 -6 -6 -6 -6 -5 -5 -6 -5 -5 -5 -5 -5 -5 -5 -5 -5
-7 -7 -7 -7 -7 -7 -7 -7 -7 -7 -7 -6 -6 -6 -6 -6 -6 -6 -6 -6 -6 -6 -6 -6 -7 -7 -7 -6 -5 -5 -6 -6 -6 -6 -5 -5 -5 -5 -5 -5 -5 -5 -6 -6
-7 -7 -7 -7 -7 -7 -7 -7 -7 -7 -7 -7 -6 -6 -6 -6 -5 -6 -6 -6 -6 -6 -6 -6 -7 -7 -7 -6 -5 -5 -5 -5 -6 -6 -6 -6 -5 -6 -6 -6 -6 -6 -6 -6
-8 -8 -8 -8 -8 -7 -7 -7 -7 -7 -7 -7 -7 -7 -7 -7 -7 -6 -6 -6 -6 -6 -6 -6 -6 -6 -6 -6 -6 -6 -6 -6 -6 -6 -6 -6 -6 -6 -6 -6 -6 -6 -6 -6
-8 -8 -8 -8 -8 -8 -8 -8 -8 -8 -8 -8 -8 -8 -8 -7 -7 -7 -7 -7 -7 -7 -7 -6 -6 -6 -6 -6 -6 -6 -6 -6 -6 -6 -6 -6 -6 -6 -6 -6 -6 -6 -6 -6
-8 -8 -8 -8 -8 -8 -8 -8 -8 -9 -9 -9 -9 -8 -8 -8 -8 -8 -8 -8 -8 -7 -7 -7 -7 -6 -7 -7 -6 -6 -6 -6 -6 -6 -6 -6 -6 -6 -6 -6 -6 -6 -6 -6
-8 -8 -8 -8 -8 -8 -8 -8 -8 -9 -8 -8 -8 -8 -8 -8 -8 -8 -8 -8 -8 -8 -8 -8 -7 -7 -7 -7 -7 -6 -7 -6 -6 -6 -6 -6 -6 -6 -6 -6 -6 -6 -6 -7

GFSNGP_700_temp_087.txt.gz
Temp
-3 -2 -2 -2 -1 -1 -2 -2 -2 -1 -0 1 0 0 1 1 1 2 1 1 -0 -0 -1 -1 -1 -1 -1 -1 -1 -1 -0 -0 0 1 1 2 2 2 2 3 3 3 3 3
-3 -3 -2 -2 -2 -2 -2 -2 -3 -2 -1 0 -0 -1 -1 0 1 1 0 -0 -1 -1 -1 -1 -2 -1 -1 -1 -1 -1 -1 -0 0 0 1 1 2 2 2 2 2 2 2 2
-3 -3 -3 -2 -1 -1 -1 -1 -1 -2 1 -0 -1 -1 -1 -1 -0 0 -0 -1 -2 -2 -2 -2 -2 -2 -1 -1 -1 -1 -1 -1 -1 -1 -0 0 1 1 1 1 1 2 2 2
-3 -4 -5 -2 -2 -2 -1 -1 -2 -1 -0 -1 -1 -2 -1 -1 -1 -0 -1 -2 -2 -2 -2 -2 -2 -2 -2 -2 -2 -2 -2 -2 -2 -1 -1 -0 -0 0 1 1 1 1 1 1
-4 -4 -2 -2 -2 -2 -2 -2 -1 -1 -1 -1 -1 -1 -0 -1 -1 -1 -1 -2 -2 -2 -2 -2 -2 -2 -2 -2 -2 -2 -3 -3 -2 -2 -1 -1 -1 -0 -0 -0 -0 0 0 0
-4 -4 -4 -3 -3 -3 -3 -3 -2 -2 -2 -1 -1 -0 -1 -1 -1 -1 -1 -2 -2 -2 -2 -2 -2 -2 -2 -2 -3 -3 -4 -4 -4 -3 -2 -1 -1 -1 -1 -1 -1 -1 -0 -0
-5 -5 -4 -4 -3 -3 -3 -3 -3 -3 -2 -2 -1 -2 -2 -1 -1 -1 -2 -2 -2 -2 -2 -2 -2 -2 -3 -3 -3 -3 -4 -3 -3 -3 -3 -2 -2 -2 -2 -2 -1 -1 -1 -1
-5 -5 -5 -4 -4 -4 -4 -4 -4 -4 -3 -3 -3 -3 -3 -2 -2 -2 -2 -2 -2 -2 -2 -2 -2 -3 -3 -3 -3 -3 -3 -4 -5 -5 -5 -4 -3 -2 -3 -2 -2 -2 -2 -2
-4 -4 -4 -4 -4 -4 -4 -4 -3 -3 -3 -3 -3 -3 -3 -3 -3 -3 -3 -2 -2 -3 -3 -3 -3 -3 -4 -4 -3 -3 -3 -5 -6 -6 -6 -5 -3 -3 -3 -3 -3 -3 -3 -3
-4 -4 -4 -4 -4 -4 -4 -4 -4 -4 -4 -4 -4 -4 -4 -4 -3 -3 -3 -3 -3 -3 -3 -3 -3 -4 -4 -4 -3 -3 -4 -5 -6 -6 -7 -6 -4 -4 -3 -3 -4 -4 -4 -4
-4 -4 -4 -4 -4 -4 -4 -4 -4 -4 -4 -4 -4 -4 -4 -4 -4 -4 -3 -3 -3 -3 -3 -3 -3 -3 -3 -3 -3 -3 -4 -5 -5 -6 -6 -5 -5 -4 -4 -4 -4 -4 -4 -3
-5 -5 -5 -4 -5 -5 -5 -5 -5 -5 -4 -4 -4 -4 -4 -4 -4 -4 -3 -3 -3 -3 -3 -3 -3 -3 -4 -3 -3 -3 -3 -5 -5 -6 -6 -5 -5 -4 -4 -4 -4 -4 -4 -4
-5 -5 -5 -5 -5 -5 -5 -5 -4 -4 -5 -5 -4 -4 -4 -4 -4 -4 -4 -4 -4 -4 -4 -3 -3 -3 -3 -3 -3 -3 -3 -3 -4 -5 -6 -5 -5 -5 -5 -5 -4 -4 -4 -4
-5 -5 -5 -5 -5 -5 -5 -5 -5 -5 -5 -5 -5 -4 -4 -4 -4 -4 -4 -4 -4 -4 -4 -4 -4 -4 -4 -3 -3 -3 -3 -3 -3 -4 -5 -5 -5 -5 -5 -4 -4 -4 -4 -4
-5 -5 -5 -5 -5 -5 -5 -5 -5 -5 -5 -5 -5 -5 -5 -4 -4 -4 -4 -4 -4 -4 -4 -4 -5 -4 -4 -4 -4 -4 -3 -3 -3 -3 -3 -4 -4 -4 -4 -4 -4 -4 -4 -4
-6 -5 -5 -5 -5 -5 -5 -5 -6 -6 -6 -5 -5 -5 -6 -5 -4 -4 -4 -4 -4 -5 -5 -4 -4 -5 -4 -4 -4 -4 -4 -4 -4 -3 -3 -4 -4 -4 -4 -4 -4 -4 -4 -4
-6 -6 -6 -6 -6 -6 -6 -6 -6 -6 -6 -6 -6 -6 -7 -7 -5 -4 -4 -4 -4 -5 -5 -5 -5 -5 -5 -5 -4 -4 -4 -4 -4 -4 -4 -4 -4 -4 -5 -4 -4 -4 -4 -4
-7 -7 -6 -6 -6 -6 -6 -6 -7 -7 -6 -6 -7 -6 -5 -5 -4 -4 -4 -4 -4 -4 -5 -5 -5 -6 -6 -6 -6 -5 -5 -5 -4 -4 -4 -4 -5 -5 -5 -5 -5 -4 -5 -5
-6 -6 -6 -6 -6 -7 -7 -7 -6 -6 -6 -6 -6 -6 -6 -5 -5 -4 -4 -4 -4 -5 -5 -5 -6 -6 -7 -7 -6 -6 -6 -5 -5 -5 -5 -5 -5 -5 -5 -5 -5 -5 -5 -5
-7 -7 -7 -7 -7 -7 -7 -6 -7 -7 -7 -6 -6 -6 -6 -6 -6 -6 -5 -5 -5 -5 -5 -6 -6 -6 -6 -7 -7 -7 -7 -6 -6 -6 -6 -5 -5 -5 -5 -5 -5 -5 -6 -6
-7 -7 -7 -7 -7 -7 -7 -7 -7 -7 -7 -7 -6 -6 -6 -6 -6 -6 -6 -6 -7 -7 -7 -7 -7 -7 -7 -7 -7 -7 -8 -7 -7 -7 -6 -6 -5 -6 -6 -5 -5 -5 -5 -6
-7 -7 -7 -7 -7 -7 -7 -7 -7 -7 -7 -7 -7 -7 -6 -6 -6 -6 -6 -6 -6 -6 -6 -6 -6 -6 -7 -7 -7 -7 -8 -7 -7 -7 -6 -6 -6 -6 -6 -6 -6 -6 -6 -6
-8 -8 -8 -8 -8 -8 -8 -8 -8 -8 -7 -7 -7 -7 -7 -7 -7 -7 -7 -6 -6 -6 -6 -6 -6 -7 -7 -7 -7 -7 -7 -7 -7 -7 -7 -7 -7 -7 -6 -6 -6 -6 -6 -6
-8 -8 -8 -8 -8 -8 -8 -8 -8 -8 -8 -8 -8 -7 -7 -8 -7 -7 -7 -7 -7 -7 -7 -7 -7 -7 -6 -6 -7 -7 -6 -7 -7 -7 -7 -7 -6 -6 -6 -6 -6 -6 -6 -6
-8 -8 -9 -9 -8 -8 -8 -8 -8 -8 -8 -8 -8 -8 -8 -8 -8 -8 -8 -8 -8 -8 -8 -7 -7 -7 -7 -7 -7 -7 -7 -7 -7 -7 -7 -7 -6 -6 -6 -6 -6 -6 -6 -6
-9 -9 -9 -8 -8 -8 -8 -8 -8 -8 -8 -8 -8 -8 -8 -8 -8 -8 -8 -8 -8 -8 -8 -8 -8 -8 -8 -8 -7 -7 -7 -7 -7 -7 -7 -7 -7 -6 -6 -6 -6 -6 -6 -6
-9 -9 -9 -9 -9 -9 -9 -8 -8 -8 -8 -8 -9 -9 -9 -8 -8 -8 -8 -8 -8 -8 -8 -8 -8 -8 -8 -8 -8 -8 -8 -7 -7 -7 -7 -7 -7 -7 -7 -7 -7 -7 -7 -7

GFSNGP_700_temp_090.txt.gz
Temp
-3 -3 -3 -2 -2 -2 -2 -2 -2 -0 0 1 1 1 1 1 2 2 2 2 1 1 1 1 -0 -0 -0 -0 -1 -1 -1 -1 -1 -0 -0 0 0 1 1 2 2 2 3 3
-3 -3 -3 -3 -2 -3 -3 -2 -2 -1 0 1 0 0 0 -0 0 1 1 1 1 1 0 -0 -0 -1 -1 -1 -1 -1 -1 -1 -1 -1 -0 -0 0 1 1 1 2 2 2 2
-3 -3 -2 -1 -2 -2 -2 -2 -1 -2 0 -1 -1 -1 -1 -1 -0 0 0 -0 -0 -1 -1 -1 -1 -2 -1 -1 -1 -1 -1 -1 -1 -1 -1 -0 -0 0 0 1 1 1 2 1
-3 -3 -2 -2 -2 -2 -2 -2 -2 -2 -1 -1 -1 -1 -1 -1 -1 -0 -0 -1 -1 -2 -2 -2 -2 -2 -2 -2 -2 -2 -2 -2 -2 -2 -2 -1 -1 -1 -1 -0 -0 0 1 1
-3 -3 -2 -3 -2 -2 -2 -2 -2 -2 -2 -1 -0 0 -0 -1 -1 -1 -1 -1 -2 -2 -2 -2 -2 -2 -2 -2 -2 -2 -2 -2 -2 -2 -2 -2 -2 -2 -1 -2 -1 -1 -0 0
-4 -3 -2 -3 -3 -3 -3 -3 -3 -3 -2 -2 -1 -0 -0 -1 -1 -1 -1 -1 -1 -2 -2 -2 -2 -2 -2 -2 -2 -2 -2 -2 -3 -3 -3 -3 -3 -2 -2 -2 -1 -1 -1 -1
-4 -4 -4 -4 -3 -3 -3 -3 -4 -4 -3 -2 -1 -1 -2 -1 -1 -1 -1 -1 -2 -2 -2 -2 -2 -2 -2 -2 -2 -2 -3 -3 -3 -4 -4 -4 -3 -3 -2 -2 -2 -2 -2 -1
-5 -4 -4 -4 -4 -4 -4 -4 -4 -3 -3 -3 -3 -2 -3 -2 -2 -2 -2 -2 -2 -2 -2 -2 -2 -2 -3 -2 -3 -3 -3 -3 -3 -3 -4 -5 -6 -6 -4 -3 -3 -3 -2 -2
-4 -4 -4 -4 -4 -4 -4 -4 -4 -4 -3 -3 -3 -3 -3 -3 -3 -3 -2 -2 -2 -2 -2 -2 -3 -3 -3 -3 -4 -4 -4 -4 -4 -4 -6 -6 -6 -6 -5 -4 -4 -4 -3 -3
-4 -4 -5 -4 -4 -4 -4 -4 -4 -4 -4 -4 -4 -4 -4 -4 -4 -3 -3 -3 -3 -3 -3 -3 -3 -3 -3 -3 -4 -4 -4 -4 -4 -5 -6 -7 -7 -7 -6 -5 -4 -4 -4 -4
-5 -5 -4 -4 -4 -4 -4 -4 -4 -4 -4 -4 -4 -4 -4 -4 -4 -4 -4 -4 -4 -4 -3 -3 -3 -3 -3 -3 -3 -4 -3 -3 -4 -5 -6 -6 -7 -7 -6 -5 -5 -5 -5 -5
-5 -5 -5 -5 -5 -5 -5 -4 -4 -5 -4 -4 -4 -4 -4 -4 -4 -4 -4 -4 -4 -4 -3 -3 -3 -3 -3 -4 -4 -3 -3 -3 -4 -5 -6 -6 -6 -6 -6 -5 -4 -5 -4 -5
-5 -5 -5 -5 -5 -5 -5 -5 -4 -5 -5 -5 -5 -5 -5 -5 -4 -4 -4 -4 -4 -4 -4 -4 -4 -4 -4 -4 -3 -4 -4 -4 -4 -4 -5 -6 -6 -6 -5 -5 -5 -5 -5 -5
-5 -5 -5 -5 -5 -5 -5 -5 -5 -5 -5 -5 -5 -5 -5 -5 -4 -4 -4 -4 -4 -4 -4 -4 -4 -4 -5 -4 -4 -4 -4 -4 -4 -4 -4 -5 -6 -6 -5 -5 -5 -5 -5 -5
-6 -5 -5 -5 -5 -5 -5 -5 -5 -5 -5 -5 -5 -5 -5 -5 -5 -4 -4 -4 -4 -4 -4 -4 -5 -5 -4 -5 -4 -4 -4 -4 -4 -4 -4 -3 -5 -5 -5 -5 -5 -5 -4 -4
-6 -6 -6 -5 -5 -6 -6 -6 -6 -6 -6 -6 -5 -5 -5 -5 -5 -5 -4 -3 -4 -4 -4 -4 -5 -5 -4 -5 -5 -4 -4 -4 -4 -4 -4 -4 -4 -4 -5 -5 -5 -5 -4 -5
-7 -7 -6 -6 -6 -6 -6 -6 -6 -6 -6 -5 -5 -5 -5 -5 -5 -4 -4 -4 -4 -4 -4 -4 -5 -5 -5 -5 -5 -5 -5 -5 -5 -5 -4 -4 -4 -4 -5 -5 -5 -6 -5 -5
-7 -7 -7 -7 -7 -6 -6 -6 -6 -6 -6 -6 -6 -5 -6 -6 -5 -5 -4 -4 -4 -3 -4 -4 -5 -5 -5 -5 -6 -6 -6 -6 -5 -5 -5 -5 -5 -5 -5 -5 -5 -5 -5 -5
-7 -7 -7 -7 -7 -7 -7 -7 -7 -7 -7 -7 -7 -7 -6 -6 -6 -6 -5 -5 -5 -5 -4 -4 -5 -5 -6 -7 -7 -6 -7 -7 -6 -6 -6 -5 -5 -5 -5 -5 -5 -5 -5 -6
-7 -7 -7 -7 -7 -7 -7 -7 -7 -7 -7 -7 -7 -7 -6 -6 -6 -6 -5 -5 -6 -6 -6 -5 -6 -6 -6 -6 -6 -6 -6 -7 -7 -7 -6 -6 -6 -6 -6 -6 -5 -5 -6 -6
-7 -7 -7 -7 -7 -7 -7 -7 -7 -7 -7 -7 -7 -7 -7 -7 -6 -6 -6 -6 -5 -5 -5 -6 -6 -6 -7 -7 -7 -7 -7 -7 -7 -7 -8 -8 -7 -7 -7 -6 -6 -6 -6 -6
-8 -8 -8 -8 -8 -8 -8 -8 -8 -8 -8 -8 -7 -7 -7 -7 -7 -6 -6 -6 -6 -6 -6 -6 -6 -6 -6 -6 -6 -7 -7 -7 -7 -7 -8 -8 -8 -7 -7 -6 -6 -6 -6 -6
-8 -8 -8 -8 -8 -8 -8 -8 -8 -9 -8 -8 -7 -7 -7 -7 -7 -7 -7 -7 -7 -7 -7 -7 -6 -6 -6 -6 -6 -6 -7 -7 -7 -7 -7 -7 -7 -7 -7 -7 -6 -7 -6 -6
-8 -8 -8 -8 -8 -9 -9 -8 -8 -8 -8 -8 -8 -7 -7 -8 -8 -7 -7 -7 -7 -7 -7 -7 -7 -7 -7 -7 -7 -6 -6 -6 -6 -7 -7 -7 -7 -7 -8 -8 -8 -7 -7 -7
-9 -9 -9 -9 -9 -8 -8 -8 -8 -8 -8 -8 -7 -7 -8 -8 -8 -8 -8 -8 -8 -8 -7 -7 -7 -7 -7 -7 -7 -7 -7 -7 -7 -7 -7 -7 -7 -7 -7 -7 -7 -7 -7 -6
-9 -9 -9 -9 -9 -9 -9 -8 -8 -8 -8 -8 -8 -8 -8 -8 -8 -8 -8 -8 -8 -7 -7 -7 -7 -7 -7 -7 -7 -7 -7 -7 -7 -7 -7 -7 -7 -7 -7 -7 -7 -7 -7 -7
-10 -10 -10 -9 -9 -9 -9 -9 -9 -9 -8 -9 -9 -9 -9 -9 -9 -9 -9 -8 -8 -8 -8 -8 -7 -7 -7 -8 -8 -8 -8 -8 -8 -8 -8 -7 -7 -7 -7 -7 -7 -7 -7 -7

GFSNGP_700_temp_093.txt.gz
Temp
-3 -2 -3 -2 -3 -3 -1 -1 -1 0 1 1 1 -0 1 1 2 2 2 2 2 2 2 2 2 2 2 1 0 -0 -0 -0 -0 -0 0 0 0 0 0 1 1 1 1 2
-3 -2 -2 -2 -1 -1 -1 -1 -2 -1 1 0 0 0 1 1 1 2 2 2 2 2 2 2 1 0 0 0 0 -0 -0 -0 -0 -1 -1 -1 -0 -0 0 0 1 1 1 2
-3 -3 -3 -3 -2 -2 -2 -2 -2 -2 -1 -2 -2 -1 -1 0 -0 0 1 1 1 1 0 0 0 0 -0 -0 -1 -1 -1 -1 -1 -1 -1 -1 -1 -1 -0 -0 0 1 1 2
-2 -3 -1 -3 -2 -3 -3 -3 -2 -1 -2 -1 -1 -1 -0 -0 -1 -0 0 0 0 -0 -0 -1 -1 -1 -1 -1 -1 -1 -1 -1 -1 -1 -1 -1 -1 -1 -1 -1 -0 -0 1 1
-2 -1 -2 -3 -2 -3 -3 -3 -2 -2 -2 -1 -1 -0 -0 -1 -1 -1 -0 0 -0 -1 -1 -1 -1 -1 -2 -2 -2 -2 -2 -2 -2 -2 -2 -2 -2 -2 -1 -1 -1 -1 -0 -0
-3 -2 -1 -3 -3 -3 -3 -3 -3 -3 -2 -1 -1 -1 -2 -0 -0 -1 -1 -0 -0 -1 -1 -1 -2 -2 -2 -2 -2 -2 -2 -2 -2 -2 -2 -3 -3 -3 -2 -2 -1 -1 -1 -1
-2 -2 -3 -3 -3 -3 -3 -3 -3 -3 -3 -2 -2 -1 -2 -1 -1 -1 -1 -1 -1 -1 -1 -2 -2 -2 -2 -2 -2 -2 -2 -2 -2 -3 -3 -3 -3 -3 -3 -4 -3 -2 -2 -2
-3 -3 -3 -4 -4 -3 -4 -4 -4 -4 -3 -3 -3 -3 -3 -2 -2 -2 -1 -1 -2 -2 -2 -2 -2 -2 -2 -2 -2 -2 -2 -3 -3 -3 -3 -3 -3 -4 -5 -6 -5 -4 -3 -3
-4 -4 -4 -4 -4 -4 -4 -4 -4 -4 -4 -4 -4 -4 -4 -3 -3 -2 -2 -2 -2 -2 -2 -2 -2 -2 -2 -2 -3 -3 -3 -3 -4 -4 -4 -3 -4 -5 -5 -6 -6 -5 -4 -3
-4 -4 -4 -4 -4 -4 -4 -4 -5 -4 -4 -4 -4 -4 -4 -4 -4 -3 -3 -3 -3 -3 -3 -3 -3 -3 -3 -3 -3 -3 -3 -4 -3 -3 -3 -3 -5 -6 -6 -6 -6 -6 -5 -4
-4 -5 -4 -4 -4 -4 -4 -4 -5 -4 -4 -4 -4 -4 -4 -4 -4 -4 -4 -4 -3 -3 -4 -4 -3 -3 -3 -3 -3 -3 -3 -4 -4 -3 -3 -4 -5 -5 -6 -6 -6 -6 -6 -5
-5 -4 -5 -5 -4 -4 -5 -5 -5 -5 -5 -4 -4 -5 -4 -4 -4 -4 -4 -4 -4 -4 -4 -4 -4 -3 -3 -3 -4 -4 -4 -4 -4 -4 -4 -4 -5 -5 -6 -6 -6 -7 -6 -6
-5 -5 -5 -5 -5 -5 -5 -5 -5 -5 -5 -5 -5 -5 -5 -5 -5 -4 -4 -4 -4 -4 -4 -4 -4 -4 -4 -5 -5 -5 -4 -4 -4 -4 -4 -4 -4 -5 -5 -6 -6 -6 -6 -6
-5 -5 -5 -5 -5 -5 -5 -5 -5 -5 -5 -5 -5 -5 -5 -5 -5 -5 -4 -4 -4 -4 -4 -4 -4 -4 -4 -4 -4 -5 -4 -4 -4 -4 -4 -4 -4 -4 -5 -6 -6 -6 -5 -5
-5 -6 -5 -5 -5 -5 -5 -5 -5 -5 -5 -5 -5 -5 -5 -5 -5 -5 -4 -4 -4 -4 -4 -4 -4 -4 -4 -4 -5 -5 -5 -4 -4 -4 -4 -4 -4 -4 -5 -5 -6 -5 -5 -5
-6 -6 -6 -6 -6 -6 -6 -6 -6 -6 -6 -6 -6 -6 -5 -5 -5 -5 -4 -4 -4 -4 -3 -3 -3 -4 -4 -5 -5 -5 -5 -5 -4 -5 -5 -4 -4 -5 -4 -5 -5 -5 -5 -6
-7 -7 -7 -6 -7 -6 -6 -6 -6 -6 -6 -6 -6 -5 -5 -5 -5 -5 -5 -4 -4 -4 -3 -3 -3 -4 -4 -5 -5 -5 -5 -6 -5 -5 -5 -5 -5 -5 -5 -5 -5 -5 -6 -6
-7 -7 -7 -7 -7 -7 -6 -6 -6 -7 -7 -6 -5 -5 -6 -6 -6 -6 -5 -5 -5 -4 -4 -4 -4 -4 -4 -5 -5 -5 -5 -6 -6 -6 -6 -5 -5 -5 -5 -5 -5 -5 -5 -6
-6 -7 -7 -7 -7 -7 -7 -7 -7 -7 -7 -6 -6 -7 -7 -6 -6 -6 -6 -5 -5 -5 -5 -5 -5 -5 -5 -5 -5 -6 -7 -6 -6 -7 -6 -6 -6 -6 -6 -5 -5 -5 -5 -5
-7 -7 -8 -7 -7 -7 -7 -7 -7 -7 -7 -7 -7 -7 -7 -7 -6 -6 -6 -6 -5 -5 -5 -5 -5 -5 -5 -5 -6 -7 -7 -7 -7 -7 -7 -7 -7 -7 -6 -6 -6 -5 -6 -6
-7 -8 -8 -7 -7 -7 -7 -7 -7 -7 -7 -8 -8 -8 -7 -7 -7 -6 -6 -6 -6 -6 -6 -5 -6 -6 -6 -6 -6 -6 -6 -6 -7 -7 -7 -8 -8 -8 -8 -8 -7 -7 -7 -6
-8 -8 -8 -8 -8 -8 -8 -8 -8 -8 -8 -8 -8 -8 -7 -7 -7 -6 -6 -6 -6 -6 -6 -6 -6 -6 -6 -6 -6 -6 -6 -6 -6 -6 -7 -7 -7 -8 -8 -8 -8 -8 -7 -8
-8 -8 -8 -8 -8 -8 -8 -8 -8 -9 -8 -8 -9 -8 -8 -7 -7 -7 -7 -7 -7 -7 -7 -7 -7 -7 -7 -7 -6 -7 -7 -7 -6 -6 -6 -6 -7 -7 -7 -7 -7 -8 -8 -8
-8 -8 -8 -9 -9 -9 -9 -9 -9 -9 -8 -8 -8 -8 -8 -7 -7 -7 -7 -7 -7 -7 -7 -7 -7 -7 -7 -7 -7 -7 -7 -7 -7 -7 -7 -7 -7 -7 -7 -7 -7 -7 -7 -8
-9 -9 -9 -9 -9 -9 -9 -10 -9 -9 -8 -8 -8 -8 -8 -8 -8 -8 -8 -8 -8 -8 -8 -7 -7 -7 -7 -7 -7 -7 -7 -7 -7 -7 -7 -7 -7 -7 -7 -7 -7 -7 -7 -7
-9 -9 -9 -9 -9 -9 -10 -10 -9 -9 -9 -8 -9 -8 -8 -8 -8 -8 -8 -8 -8 -8 -8 -8 -8 -8 -8 -7 -7 -7 -7 -7 -7 -7 -7 -7 -7 -7 -8 -7 -7 -7 -7 -7
-9 -10 -10 -10 -10 -10 -10 -9 -9 -9 -9 -9 -9 -9 -9 -9 -9 -9 -9 -9 -9 -9 -9 -9 -9 -8 -8 -8 -8 -8 -8 -8 -8 -7 -7 -7 -8 -8 -8 -8 -8 -8 -8 -8

GFSNGP_700_temp_096.txt.gz
Temp
-4 -3 -3 -2 -1 -1 -1 0 -0 -0 1 -0 -1 -0 0 1 2 2 2 2 2 2 2 2 2 2 3 3 2 2 1 1 0 0 0 -0 -0 0 0 0 0 0 1 1
-3 -2 -2 -3 -2 -2 -1 -0 0 0 -0 -0 -1 -0 -0 0 2 2 2 2 2 2 2 2 2 2 2 2 1 1 0 -0 -0 -0 -0 -1 -1 -1 -1 -1 -0 -0 -0 1
-3 -2 -3 -3 -2 -3 -2 -2 -1 -1 -2 -2 -1 -1 -1 -1 1 1 1 1 2 2 2 1 1 1 1 1 0 0 -0 -1 -1 -1 -1 -1 -1 -1 -1 -1 -1 -1 -1 -0
-2 -3 -3 -2 -2 -2 -2 -2 -1 -2 -2 -2 -1 -1 -1 -0 -0 -0 -0 0 0 1 1 1 1 1 0 -0 -1 -1 -1 -1 -1 -1 -1 -2 -2 -2 -2 -1 -1 -1 -1 -0
-3 -1 -2 -2 -2 -2 -2 -2 -2 -2 -2 -2 -1 -1 -1 -1 -1 -1 -1 -0 0 -0 -0 0 -0 -0 -1 -1 -1 -1 -2 -2 -2 -2 -2 -2 -2 -2 -2 -2 -2 -2 -2 -1
-3 -2 -2 -3 -3 -2 -3 -3 -3 -3 -3 -2 -2 -2 -2 -1 -1 -1 -1 -1 -0 -0 -0 -1 -1 -1 -1 -2 -2 -2 -2 -2 -2 -2 -2 -2 -2 -2 -2 -2 -2 -3 -2 -1
-3 -2 -3 -3 -3 -3 -3 -3 -4 -3 -3 -3 -2 -3 -2 -2 -1 -1 -1 -1 -1 -1 -1 -1 -1 -2 -2 -2 -2 -2 -2 -2 -2 -2 -3 -3 -3 -3 -3 -3 -3 -3 -3 -2
-3 -3 -4 -4 -4 -4 -4 -4 -4 -3 -3 -3 -3 -3 -3 -3 -3 -2 -2 -2 -2 -2 -2 -2 -2 -2 -2 -2 -2 -2 -2 -2 -3 -3 -3 -3 -3 -3 -3 -3 -3 -4 -6 -6
-4 -4 -4 -4 -4 -4 -4 -4 -4 -4 -4 -4 -4 -4 -4 -4 -3 -3 -3 -2 -2 -2 -2 -2 -2 -2 -2 -2 -2 -2 -2 -3 -3 -3 -3 -3 -3 -3 -4 -4 -5 -6 -6 -6
-4 -5 -4 -4 -4 -4 -4 -4 -4 -4 -4 -4 -4 -4 -4 -4 -4 -4 -4 -4 -3 -3 -3 -3 -3 -3 -3 -3 -3 -3 -3 -3 -3 -4 -4 -3 -3 -3 -4 -5 -6 -6 -6 -6
-5 -5 -5 -5 -4 -4 -4 -4 -4 -4 -4 -4 -4 -4 -4 -5 -4 -4 -4 -4 -4 -4 -3 -3 -3 -3 -3 -3 -3 -3 -4 -4 -4 -3 -3 -3 -4 -4 -4 -5 -5 -6 -6 -7
-5 -5 -5 -5 -5 -5 -5 -5 -5 -5 -5 -5 -5 -5 -5 -5 -4 -4 -4 -5 -5 -4 -4 -4 -4 -4 -5 -4 -4 -4 -5 -4 -4 -4 -4 -4 -4 -4 -4 -4 -5 -6 -6 -7
-5 -5 -5 -5 -5 -5 -5 -5 -5 -5 -5 -5 -5 -5 -5 -5 -5 -4 -4 -4 -4 -4 -4 -4 -4 -4 -4 -4 -4 -4 -5 -5 -5 -5 -4 -4 -3 -4 -4 -4 -5 -6 -6 -6
-6 -6 -6 -5 -5 -5 -5 -5 -5 -5 -5 -5 -5 -5 -5 -5 -5 -5 -5 -5 -4 -4 -4 -4 -4 -4 -4 -4 -4 -4 -5 -6 -5 -5 -4 -4 -4 -4 -4 -4 -4 -5 -6 -6
-6 -6 -6 -6 -6 -6 -6 -6 -5 -6 -6 -6 -6 -6 -6 -6 -5 -5 -5 -5 -5 -4 -4 -4 -4 -3 -4 -4 -4 -5 -5 -6 -6 -5 -5 -5 -5 -4 -4 -4 -4 -5 -6 -6
-7 -7 -6 -6 -6 -6 -6 -6 -6 -6 -6 -6 -6 -6 -6 -6 -5 -5 -5 -4 -4 -4 -4 -4 -3 -3 -3 -3 -4 -5 -6 -6 -6 -6 -6 -5 -5 -5 -5 -5 -5 -5 -5 -6
-6 -6 -6 -7 -6 -7 -7 -7 -7 -6 -6 -6 -6 -6 -6 -6 -5 -5 -5 -5 -5 -5 -4 -4 -4 -3 -3 -3 -4 -5 -5 -6 -6 -6 -6 -6 -6 -6 -5 -5 -5 -5 -5 -6
-6 -6 -6 -6 -7 -7 -7 -7 -7 -6 -6 -6 -6 -6 -6 -6 -6 -6 -6 -6 -6 -5 -5 -5 -5 -5 -4 -4 -5 -5 -5 -6 -6 -7 -7 -7 -7 -7 -6 -6 -6 -6 -5 -6
-6 -6 -6 -6 -7 -7 -7 -7 -7 -7 -7 -7 -7 -7 -7 -7 -7 -7 -6 -6 -6 -6 -6 -5 -5 -5 -5 -5 -5 -6 -6 -7 -7 -7 -8 -7 -7 -7 -7 -7 -7 -6 -6 -6
-6 -6 -7 -7 -7 -7 -7 -7 -7 -7 -7 -7 -7 -7 -7 -8 -8 -7 -7 -7 -6 -6 -6 -6 -6 -6 -6 -6 -6 -5 -6 -7 -7 -7 -7 -7 -7 -7 -7 -7 -7 -7 -7 -6
-6 -7 -7 -7 -7 -7 -7 -7 -8 -7 -7 -8 -8 -8 -8 -8 -8 -7 -7 -7 -6 -6 -6 -6 -6 -6 -6 -6 -6 -6 -6 -6 -6 -6 -6 -7 -7 -7 -8 -8 -8 -8 -8 -8
-7 -7 -7 -7 -8 -8 -8 -8 -8 -8 -8 -8 -8 -8 -8 -9 -8 -8 -7 -7 -7 -7 -7 -7 -7 -7 -7 -7 -7 -7 -7 -7 -7 -6 -6 -6 -6 -7 -7 -8 -8 -8 -8 -8
-8 -8 -8 -8 -8 -8 -9 -9 -9 -9 -9 -9 -9 -9 -8 -8 -8 -8 -7 -8 -7 -7 -7 -7 -7 -7 -7 -7 -7 -7 -7 -7 -7 -7 -7 -7 -7 -7 -7 -7 -7 -7 -7 -7
-7 -8 -8 -8 -8 -8 -9 -9 -9 -9 -9 -9 -9 -8 -8 -8 -8 -8 -8 -8 -8 -8 -8 -8 -8 -8 -7 -7 -7 -7 -7 -7 -7 -7 -7 -7 -7 -7 -7 -7 -7 -7 -7 -7
-8 -8 -8 -9 -9 -9 -9 -9 -9 -9 -9 -10 -9 -9 -9 -8 -8 -8 -8 -8 -8 -8 -8 -8 -8 -8 -8 -8 -8 -8 -8 -8 -7 -7 -7 -7 -7 -7 -7 -7 -7 -7 -7 -8
-8 -9 -9 -9 -10 -10 -10 -10 -9 -9 -9 -9 -9 -9 -9 -9 -9 -9 -9 -9 -9 -9 -9 -9 -9 -9 -9 -9 -8 -8 -8 -8 -8 -8 -8 -7 -7 -7 -7 -8 -8 -8 -8 -8
-9 -9 -9 -10 -10 -10 -10 -10 -10 -10 -10 -9 -9 -9 -9 -9 -9 -9 -9 -10 -10 -10 -9 -9 -9 -9 -9 -9 -9 -9 -9 -8 -8 -8 -8 -8 -8 -8 -8 -8 -8 -8 -8 -8

GFSNGP_700_temp_099.txt.gz
Temp
-4 -3 -3 -2 -2 -2 -1 -1 -2 -1 -3 -2 -1 -1 0 1 1 1 1 2 2 2 2 2 2 2 2 2 2 2 2 1 1 1 0 -0 -0 -0 -0 -0 -0 -0 -0 0
-3 -3 -3 -2 -2 -2 -1 -1 -2 -2 -1 -1 -1 -1 -1 0 1 2 2 2 2 2 2 2 2 2 2 2 2 2 1 1 0 -0 -1 -1 -1 -1 -1 -1 -1 -1 -1 -1
-3 -3 -3 -2 -3 -2 -2 -2 -1 -2 -2 -1 -1 -1 -0 0 1 1 1 1 1 1 1 2 2 1 1 2 1 1 1 0 -0 -1 -1 -1 -1 -1 -1 -1 -1 -1 -1 -1
-3 -3 -3 -3 -3 -2 -2 -2 -2 -2 -2 -2 -2 -1 -1 -0 0 1 0 0 1 1 0 1 1 1 1 0 0 -0 -0 -1 -1 -1 -1 -2 -2 -2 -2 -2 -2 -2 -2 -2
-3 -3 -3 -3 -2 -3 -3 -3 -3 -2 -2 -2 -2 -2 -1 -1 -1 -1 -1 -0 -0 -0 -0 -0 -0 -0 -0 -1 -1 -1 -1 -1 -1 -1 -2 -2 -2 -2 -2 -2 -2 -2 -2 -2
-3 -3 -3 -3 -3 -3 -3 -3 -4 -3 -3 -2 -2 -2 -2 -1 -1 -1 -1 -1 -1 -1 -0 -0 -1 -1 -1 -2 -2 -2 -2 -2 -2 -2 -2 -2 -2 -2 -2 -2 -3 -3 -3 -3
-4 -4 -3 -3 -3 -3 -3 -3 -4 -4 -3 -3 -3 -3 -2 -2 -2 -2 -1 -1 -1 -1 -1 -1 -1 -2 -2 -2 -2 -2 -2 -2 -2 -2 -2 -3 -3 -3 -3 -3 -3 -3 -3 -3
-4 -4 -5 -4 -4 -3 -4 -4 -4 -4 -4 -4 -4 -3 -3 -3 -3 -2 -2 -2 -2 -2 -2 -2 -2 -3 -2 -2 -3 -2 -2 -2 -2 -2 -3 -3 -3 -3 -4 -3 -3 -3 -3 -3
-4 -4 -4 -4 -4 -4 -4 -4 -4 -4 -4 -4 -4 -4 -4 -4 -4 -3 -3 -3 -3 -3 -2 -2 -2 -3 -3 -3 -3 -3 -3 -3 -3 -3 -3 -3 -3 -4 -4 -3 -4 -3 -3 -4
-5 -5 -5 -5 -4 -4 -4 -4 -4 -4 -5 -5 -5 -5 -5 -5 -4 -4 -4 -4 -4 -4 -3 -3 -3 -3 -3 -3 -3 -3 -3 -3 -3 -4 -3 -4 -4 -4 -4 -4 -4 -4 -4 -4
-5 -5 -5 -5 -5 -5 -5 -4 -4 -4 -5 -5 -5 -4 -5 -5 -5 -5 -5 -5 -4 -4 -4 -4 -4 -4 -3 -3 -3 -3 -4 -4 -4 -4 -4 -4 -5 -4 -4 -4 -4 -4 -4 -5
-5 -5 -5 -5 -5 -5 -5 -5 -5 -5 -5 -5 -5 -5 -5 -5 -5 -5 -5 -5 -5 -5 -5 -5 -4 -4 -4 -4 -4 -4 -4 -5 -4 -5 -5 -5 -5 -4 -4 -4 -4 -4 -4 -5
-6 -6 -6 -6 -6 -5 -5 -5 -5 -5 -5 -5 -5 -5 -5 -5 -5 -5 -5 -5 -5 -5 -5 -5 -4 -4 -4 -4 -4 -4 -4 -5 -5 -5 -5 -6 -5 -5 -4 -4 -4 -4 -4 -4
-6 -6 -6 -6 -6 -6 -6 -5 -5 -5 -6 -6 -6 -5 -5 -5 -5 -5 -5 -5 -5 -5 -5 -5 -4 -4 -4 -4 -4 -4 -4 -4 -5 -5 -6 -6 -6 -5 -5 -5 -4 -4 -4 -4
-7 -6 -6 -6 -7 -7 -6 -6 -6 -6 -6 -6 -6 -6 -6 -6 -6 -6 -6 -5 -5 -5 -4 -4 -4 -4 -4 -4 -4 -4 -4 -5 -6 -7 -7 -6 -6 -6 -6 -5 -5 -5 -5 -5
-6 -6 -6 -6 -6 -6 -6 -6 -6 -6 -6 -6 -6 -6 -6 -6 -6 -6 -5 -5 -5 -5 -5 -5 -5 -4 -4 -4 -3 -4 -4 -5 -6 -7 -7 -7 -7 -6 -6 -6 -5 -5 -5 -5
-6 -6 -6 -6 -6 -6 -7 -7 -8 -7 -7 -7 -7 -6 -6 -6 -6 -6 -5 -6 -6 -6 -6 -5 -5 -5 -5 -4 -4 -4 -4 -5 -6 -7 -7 -7 -7 -7 -7 -7 -7 -6 -6 -6
-5 -5 -5 -5 -6 -6 -6 -7 -7 -7 -7 -7 -6 -6 -6 -7 -6 -6 -7 -7 -6 -6 -6 -6 -6 -6 -5 -5 -5 -5 -5 -6 -6 -7 -7 -8 -8 -9 -8 -8 -8 -8 -7 -7
-5 -6 -6 -6 -6 -6 -7 -7 -7 -7 -7 -7 -7 -7 -7 -7 -7 -7 -7 -7 -7 -7 -6 -6 -6 -6 -6 -6 -6 -6 -6 -6 -7 -8 -8 -9 -9 -9 -9 -8 -8 -8 -8 -7
-6 -6 -6 -6 -7 -7 -7 -7 -7 -8 -7 -7 -7 -7 -7 -7 -7 -8 -8 -8 -8 -7 -7 -6 -6 -6 -6 -6 -6 -6 -6 -6 -7 -7 -8 -8 -8 -8 -8 -8 -8 -8 -8 -8
-7 -7 -7 -7 -7 -7 -7 -8 -8 -8 -8 -8 -8 -8 -8 -8 -8 -8 -8 -9 -8 -7 -7 -7 -7 -7 -7 -7 -7 -7 -7 -7 -7 -7 -7 -7 -7 -7 -7 -8 -8 -8 -8 -8
-7 -7 -8 -8 -8 -8 -8 -8 -8 -8 -8 -9 -9 -9 -9 -9 -9 -9 -9 -8 -8 -8 -7 -7 -7 -7 -7 -7 -7 -7 -7 -7 -7 -7 -7 -7 -7 -7 -7 -7 -7 -7 -7 -7
-7 -8 -8 -8 -8 -8 -8 -8 -8 -9 -9 -9 -9 -9 -10 -10 -9 -9 -8 -8 -8 -8 -8 -8 -8 -8 -8 -7 -7 -7 -7 -7 -7 -7 -7 -7 -7 -7 -7 -7 -7 -7 -7 -7
-7 -8 -8 -8 -9 -9 -9 -9 -9 -9 -9 -9 -9 -9 -9 -10 -10 -9 -9 -9 -9 -9 -9 -9 -9 -9 -9 -9 -8 -8 -8 -8 -8 -8 -8 -8 -7 -7 -7 -7 -7 -7 -7 -7
-7 -8 -8 -8 -9 -9 -10 -10 -10 -10 -10 -10 -9 -10 -9 -9 -9 -9 -9 -9 -9 -9 -9 -9 -9 -9 -9 -9 -9 -9 -9 -8 -8 -8 -8 -8 -8 -8 -8 -8 -7 -7 -7 -7
-8 -8 -8 -9 -9 -9 -10 -10 -10 -10 -10 -10 -10 -10 -9 -9 -9 -9 -10 -10 -10 -10 -10 -10 -10 -9 -9 -9 -9 -9 -9 -9 -9 -9 -9 -8 -8 -8 -8 -8 -8 -8 -7 -7
-8 -8 -9 -9 -9 -10 -10 -10 -10 -10 -10 -10 -10 -10 -10 -10 -10 -10 -10 -10 -9 -9 -9 -9 -9 -9 -9 -9 -10 -10 -10 -10 -9 -9 -9 -9 -9 -8 -8 -8 -8 -8 -8 -8

GFSNGP_700_temp_102.txt.gz
Temp
-4 -4 -3 -2 -2 -2 -2 -1 -2 -3 -2 -2 -1 -0 0 0 0 1 1 1 2 2 1 1 1 1 1 1 1 1 1 1 1 0 0 0 0 0 0 -0 -0 -0 -0 -1
-3 -4 -3 -3 -2 -2 -2 -2 -2 -3 -3 -2 -1 -1 -0 0 1 1 1 1 1 1 2 2 2 2 2 1 1 1 1 1 1 1 0 0 -0 -0 -1 -1 -1 -1 -1 -1
-3 -3 -3 -3 -4 -2 -2 -3 -2 -2 -2 -2 -1 -1 -1 -0 -0 0 1 1 1 1 1 1 1 1 1 1 1 1 1 1 1 1 0 -0 -1 -1 -1 -1 -1 -1 -1 -2
-3 -3 -4 -3 -3 -3 -3 -3 -3 -2 -2 -2 -2 -1 -1 -1 -0 -0 0 1 0 1 1 1 1 1 1 1 1 0 0 0 -0 -0 -1 -1 -1 -1 -2 -2 -2 -2 -2 -2
-3 -3 -3 -3 -3 -3 -3 -3 -3 -3 -3 -3 -2 -2 -2 -1 -0 0 1 -0 -0 0 0 0 -0 0 0 -0 -0 -0 -0 -1 -1 -1 -1 -2 -2 -2 -2 -2 -2 -2 -2 -2
-4 -3 -4 -3 -3 -3 -3 -3 -3 -3 -3 -3 -3 -2 -2 -2 -1 -1 -1 -1 -1 -1 -1 -1 -1 -1 -1 -1 -1 -2 -2 -2 -2 -2 -2 -2 -2 -2 -2 -2 -2 -3 -3 -3
-4 -4 -4 -4 -3 -3 -4 -4 -4 -4 -4 -3 -3 -3 -3 -3 -2 -2 -1 -1 -1 -1 -1 -1 -2 -2 -2 -2 -2 -2 -2 -2 -2 -2 -2 -2 -2 -2 -2 -3 -3 -3 -3 -3
-4 -4 -5 -4 -4 -4 -4 -4 -4 -4 -4 -4 -4 -3 -3 -3 -3 -3 -3 -2 -2 -2 -2 -2 -2 -2 -2 -3 -3 -3 -3 -3 -3 -3 -3 -3 -3 -3 -3 -3 -3 -3 -3 -3
-4 -4 -4 -4 -4 -4 -4 -4 -4 -4 -4 -4 -4 -4 -4 -4 -4 -4 -3 -3 -3 -3 -3 -3 -3 -3 -3 -3 -3 -3 -3 -3 -3 -3 -3 -3 -3 -3 -3 -3 -2 -3 -3 -3
-5 -5 -5 -5 -5 -5 -5 -5 -5 -5 -5 -5 -4 -5 -5 -5 -5 -5 -4 -4 -4 -4 -4 -3 -3 -3 -3 -3 -3 -3 -3 -3 -3 -3 -3 -4 -4 -4 -3 -3 -3 -3 -3 -4
-5 -5 -5 -5 -5 -5 -5 -5 -5 -5 -5 -5 -5 -5 -5 -5 -5 -5 -5 -5 -5 -5 -5 -4 -4 -4 -4 -4 -4 -4 -3 -3 -4 -5 -5 -5 -5 -5 -5 -5 -4 -4 -3 -4
-6 -5 -5 -5 -5 -5 -5 -5 -5 -5 -5 -5 -5 -5 -5 -5 -5 -5 -5 -5 -5 -5 -5 -5 -5 -4 -4 -4 -4 -4 -4 -4 -4 -5 -5 -5 -5 -5 -6 -6 -5 -4 -4 -4
-6 -6 -6 -6 -6 -6 -6 -6 -5 -5 -5 -5 -5 -5 -5 -6 -6 -5 -5 -5 -5 -5 -5 -5 -5 -5 -5 -4 -4 -4 -4 -4 -4 -5 -6 -6 -6 -6 -6 -6 -6 -5 -5 -4
-6 -6 -6 -6 -6 -6 -6 -6 -6 -6 -6 -6 -6 -6 -6 -6 -5 -5 -6 -6 -5 -5 -5 -5 -5 -5 -5 -4 -4 -4 -4 -4 -4 -4 -5 -6 -6 -6 -7 -6 -6 -6 -5 -5
-6 -6 -6 -6 -6 -6 -6 -6 -6 -6 -6 -6 -6 -6 -6 -6 -6 -6 -6 -6 -6 -5 -5 -5 -4 -4 -4 -4 -4 -4 -4 -4 -4 -4 -5 -5 -7 -7 -7 -7 -6 -6 -6 -6
-5 -6 -6 -6 -6 -6 -6 -6 -6 -6 -7 -6 -6 -7 -6 -6 -6 -6 -6 -6 -5 -5 -5 -5 -5 -5 -5 -5 -4 -4 -4 -4 -4 -4 -5 -6 -7 -6 -7 -7 -7 -7 -7 -6
-5 -5 -5 -5 -6 -6 -6 -6 -6 -7 -7 -7 -7 -7 -7 -7 -6 -6 -6 -6 -6 -6 -6 -6 -6 -6 -5 -5 -5 -5 -5 -4 -4 -5 -5 -6 -8 -7 -8 -8 -8 -7 -7 -8
-5 -5 -5 -5 -5 -5 -6 -6 -7 -7 -7 -7 -7 -7 -7 -7 -7 -7 -7 -7 -7 -7 -7 -7 -6 -6 -6 -6 -6 -5 -5 -5 -6 -6 -6 -7 -8 -8 -9 -9 -9 -8 -8 -9
-5 -5 -5 -6 -6 -5 -6 -6 -7 -8 -8 -8 -7 -7 -7 -7 -7 -7 -7 -8 -8 -8 -7 -7 -7 -6 -6 -6 -6 -6 -6 -6 -6 -6 -7 -8 -8 -9 -9 -9 -9 -9 -9 -9
-6 -6 -6 -6 -6 -6 -6 -7 -7 -7 -8 -8 -8 -8 -8 -8 -7 -8 -8 -8 -8 -8 -8 -8 -7 -7 -7 -7 -7 -7 -7 -7 -7 -7 -7 -7 -7 -7 -8 -8 -8 -8 -8 -8
-6 -6 -6 -6 -7 -7 -7 -7 -7 -7 -8 -8 -8 -8 -8 -8 -9 -9 -9 -9 -9 -9 -9 -8 -7 -7 -7 -7 -7 -7 -7 -7 -7 -7 -7 -7 -7 -7 -7 -7 -7 -7 -7 -7
-6 -6 -6 -7 -7 -7 -7 -8 -8 -8 -8 -8 -9 -9 -9 -9 -10 -10 -10 -10 -10 -9 -9 -8 -8 -8 -8 -8 -8 -7 -7 -7 -7 -7 -7 -7 -7 -7 -7 -7 -7 -7 -7 -7
-6 -6 -6 -7 -7 -8 -8 -8 -8 -9 -9 -9 -9 -10 -10 -10 -10 -10 -11 -11 -10 -9 -9 -9 -9 -9 -9 -8 -8 -8 -8 -8 -8 -8 -8 -7 -7 -7 -7 -7 -7 -7 -7 -7
-6 -6 -6 -7 -7 -8 -9 -9 -9 -9 -10 -10 -10 -10 -10 -10 -10 -10 -10 -10 -10 -10 -9 -9 -9 -9 -9 -9 -9 -9 -9 -9 -9 -8 -8 -8 -8 -8 -8 -8 -8 -8 -7 -7
-6 -6 -7 -7 -7 -8 -8 -9 -10 -10 -10 -10 -11 -10 -10 -11 -11 -10 -10 -10 -10 -10 -10 -10 -10 -10 -9 -9 -9 -9 -9 -9 -9 -9 -9 -9 -9 -9 -9 -8 -8 -8 -8 -8
-7 -7 -7 -7 -8 -8 -9 -9 -10 -10 -11 -11 -11 -11 -11 -11 -11 -10 -10 -10 -10 -10 -10 -10 -10 -9 -9 -9 -9 -9 -9 -9 -9 -9 -9 -9 -9 -9 -9 -9 -9 -9 -8 -8
-8 -8 -8 -8 -8 -8 -9 -9 -10 -10 -10 -10 -11 -11 -11 -11 -11 -10 -10 -10 -10 -10 -10 -9 -9 -9 -9 -9 -9 -9 -9 -9 -9 -9 -9 -9 -10 -9 -9 -9 -9 -9 -9 -10

GFSNGP_700_temp_105.txt.gz
Temp
-4 -4 -4 -3 -2 -2 -2 -2 -1 -2 -2 -2 -1 -1 -0 -0 -0 -0 0 1 1 1 1 1 1 1 1 1 1 1 1 1 1 1 1 0 -0 -0 -0 -0 -0 -0 -0 -0
-4 -4 -4 -3 -3 -3 -3 -3 -2 -2 -2 -2 -1 -1 -1 -0 -0 -0 0 1 1 1 1 1 1 1 1 1 1 1 0 1 1 1 1 0 -0 -1 -0 -1 -1 -1 -1 -1
-3 -3 -3 -3 -3 -3 -3 -3 -2 -2 -2 -2 -2 -2 -1 -1 -0 -0 -0 0 1 1 1 1 1 0 0 0 1 1 1 1 1 1 1 1 0 -0 -1 -1 -1 -1 -1 -1
-3 -3 -5 -4 -4 -4 -4 -3 -3 -3 -2 -2 -2 -1 -1 -1 -1 -0 0 0 1 1 1 1 1 1 1 1 1 1 1 1 1 1 1 0 -0 -1 -1 -1 -1 -1 -1 -2
-3 -3 -4 -4 -4 -4 -3 -3 -3 -3 -2 -2 -2 -2 -2 -1 -1 -0 -0 -0 -0 0 0 0 1 0 0 0 1 1 0 0 -0 -0 -0 -0 -1 -1 -1 -2 -2 -2 -2 -2
-4 -4 -4 -4 -4 -4 -4 -3 -4 -3 -3 -3 -3 -2 -2 -1 -1 -1 -0 -0 -1 -1 -1 -0 -0 -0 -0 -0 -1 -1 -1 -1 -0 -1 -1 -1 -1 -2 -2 -2 -2 -2 -2 -2
-4 -4 -4 -4 -4 -4 -4 -4 -4 -4 -4 -3 -3 -3 -2 -2 -2 -2 -1 -1 -1 -1 -1 -1 -1 -1 -1 -1 -1 -2 -1 -1 -2 -2 -2 -2 -2 -2 -3 -2 -2 -2 -2 -2
-4 -4 -5 -4 -4 -4 -4 -4 -4 -4 -4 -4 -4 -3 -3 -3 -3 -3 -2 -2 -2 -2 -2 -2 -2 -2 -2 -2 -2 -2 -2 -2 -2 -2 -3 -3 -3 -3 -3 -2 -2 -2 -2 -2
-5 -4 -5 -4 -4 -5 -5 -4 -4 -4 -4 -4 -4 -4 -4 -4 -4 -4 -3 -3 -3 -3 -3 -3 -3 -3 -3 -3 -3 -3 -3 -3 -3 -3 -3 -3 -3 -3 -3 -3 -3 -3 -2 -2
-5 -5 -5 -5 -5 -5 -5 -5 -5 -5 -5 -5 -5 -5 -5 -5 -5 -5 -4 -4 -4 -4 -3 -3 -3 -3 -3 -3 -3 -3 -3 -3 -3 -3 -3 -3 -4 -4 -4 -4 -5 -4 -3 -2
-5 -5 -5 -5 -5 -5 -5 -5 -5 -5 -5 -5 -5 -5 -5 -5 -5 -5 -5 -5 -5 -5 -5 -5 -4 -4 -4 -4 -3 -4 -4 -4 -4 -4 -4 -4 -5 -5 -5 -5 -5 -5 -5 -3
-6 -5 -6 -6 -5 -5 -5 -5 -5 -5 -5 -5 -5 -5 -5 -5 -5 -5 -5 -5 -5 -5 -5 -6 -5 -5 -4 -4 -4 -4 -4 -4 -4 -4 -4 -4 -5 -5 -5 -5 -5 -6 -6 -5
-5 -6 -6 -6 -6 -6 -5 -5 -5 -6 -6 -6 -5 -5 -5 -6 -6 -6 -5 -5 -5 -5 -5 -5 -5 -5 -5 -5 -5 -5 -4 -4 -4 -4 -4 -5 -5 -5 -5 -6 -6 -7 -7 -7
-5 -5 -5 -6 -6 -6 -6 -6 -6 -6 -6 -6 -6 -6 -6 -6 -6 -6 -5 -6 -5 -6 -6 -5 -5 -5 -5 -5 -5 -5 -4 -4 -4 -4 -4 -4 -4 -5 -6 -6 -7 -7 -7 -7
-4 -5 -5 -5 -5 -6 -6 -6 -6 -6 -6 -6 -6 -6 -6 -6 -6 -6 -6 -6 -6 -6 -6 -5 -5 -5 -5 -4 -4 -4 -4 -4 -4 -4 -4 -4 -4 -5 -6 -7 -7 -7 -7 -8
-4 -4 -4 -4 -5 -5 -6 -6 -6 -6 -7 -7 -7 -7 -7 -7 -7 -7 -6 -6 -6 -6 -6 -5 -5 -5 -5 -5 -5 -5 -5 -4 -4 -4 -4 -4 -4 -5 -6 -6 -7 -7 -7 -8
-4 -4 -4 -4 -4 -5 -5 -5 -5 -6 -6 -7 -7 -8 -8 -8 -7 -7 -7 -7 -6 -6 -6 -6 -6 -6 -6 -6 -6 -6 -5 -5 -5 -5 -4 -4 -5 -6 -6 -7 -8 -8 -8 -8
-5 -5 -4 -5 -5 -5 -5 -5 -5 -6 -6 -7 -7 -7 -8 -7 -7 -7 -7 -7 -7 -7 -7 -7 -7 -7 -7 -7 -6 -6 -6 -6 -5 -5 -5 -5 -6 -6 -8 -8 -8 -8 -8 -8
-5 -5 -5 -5 -5 -5 -5 -5 -5 -6 -6 -7 -7 -8 -8 -8 -8 -7 -7 -7 -7 -7 -8 -8 -8 -8 -8 -7 -7 -6 -6 -6 -6 -6 -6 -6 -7 -7 -7 -8 -8 -8 -8 -8
-5 -5 -5 -5 -5 -6 -6 -6 -6 -6 -7 -7 -7 -8 -8 -8 -8 -8 -8 -8 -8 -9 -9 -9 -9 -8 -8 -8 -7 -7 -7 -7 -7 -7 -7 -7 -7 -7 -7 -7 -7 -7 -7 -7
-5 -5 -5 -5 -5 -6 -6 -7 -7 -7 -7 -7 -8 -8 -8 -8 -8 -8 -8 -9 -9 -10 -10 -10 -9 -9 -10 -9 -8 -8 -8 -7 -7 -7 -7 -7 -7 -7 -7 -7 -7 -7 -7 -7
-5 -5 -5 -5 -6 -6 -7 -7 -8 -8 -8 -8 -8 -8 -8 -9 -9 -9 -9 -10 -10 -10 -10 -11 -11 -11 -10 -9 -9 -8 -8 -8 -8 -8 -8 -8 -8 -8 -7 -7 -7 -7 -7 -7
-5 -5 -5 -6 -6 -7 -7 -8 -8 -8 -9 -9 -9 -9 -9 -9 -10 -10 -10 -10 -10 -10 -11 -12 -12 -10 -10 -10 -10 -9 -9 -9 -9 -9 -9 -9 -9 -8 -8 -8 -8 -8 -8 -8
-5 -5 -6 -6 -6 -7 -7 -8 -8 -9 -9 -10 -10 -10 -10 -10 -10 -10 -10 -10 -10 -11 -11 -11 -11 -12 -11 -10 -10 -10 -10 -9 -9 -9 -9 -9 -9 -9 -9 -9 -9 -8 -8 -8
-6 -6 -6 -6 -6 -7 -7 -8 -8 -9 -10 -10 -10 -11 -11 -11 -11 -11 -11 -11 -11 -11 -11 -11 -11 -11 -11 -10 -10 -10 -9 -9 -9 -9 -9 -9 -9 -9 -9 -9 -9 -9 -9 -9
-6 -7 -7 -7 -7 -7 -8 -8 -9 -9 -9 -10 -10 -11 -11 -11 -11 -11 -11 -11 -11 -11 -11 -11 -10 -10 -10 -10 -10 -10 -9 -9 -9 -9 -9 -9 -9 -9 -9 -9 -9 -9 -9 -9
-7 -8 -8 -8 -8 -8 -8 -8 -8 -9 -9 -9 -10 -10 -10 -10 -10 -11 -11 -11 -11 -11 -10 -10 -10 -10 -10 -10 -9 -9 -9 -9 -9 -9 -9 -9 -9 -9 -10 -10 -10 -10 -10 -10

GFSNGP_700_temp_108.txt.gz
Temp
-4 -4 -4 -3 -3 -3 -2 -2 -1 -2 -2 -2 -1 -1 -1 -0 -0 0 1 1 2 1 1 1 1 1 1 1 1 1 1 1 1 1 1 1 1 1 1 0 0 -0 -0 -0
-4 -4 -4 -4 -4 -4 -3 -2 -2 -2 -2 -2 -2 -1 -1 -1 -1 -0 -0 0 1 1 1 1 1 1 1 1 1 1 0 0 0 0 1 1 0 1 1 1 0 0 -1 -1
-3 -3 -4 -3 -4 -3 -3 -3 -3 -3 -3 -2 -2 -2 -1 -1 -1 -1 -0 0 0 0 1 1 1 1 1 1 1 0 0 0 0 0 1 1 1 1 1 0 -0 -0 -1 -1
-3 -3 -5 -4 -4 -4 -4 -3 -3 -3 -3 -3 -2 -2 -1 -1 -1 -1 -1 -0 0 1 1 1 1 1 1 1 0 0 0 0 0 0 1 1 1 1 0 0 -0 -1 -1 -1
-3 -4 -4 -4 -4 -4 -4 -3 -3 -3 -3 -3 -3 -2 -2 -1 -1 -1 -1 -1 -0 -0 0 1 1 1 1 0 0 0 0 0 0 0 0 0 0 0 -0 -1 -1 -2 -1 -1
-4 -4 -5 -4 -4 -4 -4 -4 -4 -4 -4 -3 -3 -3 -3 -2 -2 -2 -1 -1 -1 -1 -0 -0 -0 0 0 1 0 -0 -0 -0 -0 -0 -0 -0 -1 -1 -1 -1 -2 -2 -2 -2
-4 -4 -4 -4 -4 -4 -4 -4 -4 -4 -4 -4 -3 -3 -3 -3 -2 -3 -2 -2 -2 -2 -1 -1 -1 -1 -1 -1 -1 -0 -1 -1 -1 -1 -1 -2 -2 -2 -2 -2 -2 -2 -2 -2
-5 -4 -6 -4 -4 -4 -4 -5 -4 -4 -4 -4 -4 -4 -4 -4 -4 -4 -3 -3 -2 -2 -3 -3 -2 -2 -2 -2 -2 -2 -2 -2 -2 -2 -2 -2 -2 -2 -2 -3 -3 -2 -2 -2
-4 -4 -4 -5 -5 -4 -5 -5 -4 -4 -4 -4 -4 -5 -5 -5 -5 -4 -4 -4 -3 -3 -3 -3 -3 -3 -3 -3 -3 -3 -3 -3 -3 -2 -3 -3 -3 -3 -3 -3 -3 -3 -2 -2
-4 -4 -5 -5 -5 -5 -5 -5 -5 -5 -5 -5 -5 -5 -5 -5 -5 -5 -5 -5 -4 -4 -4 -4 -4 -4 -4 -3 -3 -3 -3 -3 -3 -3 -3 -3 -3 -3 -3 -3 -3 -3 -3 -4
-5 -5 -5 -5 -5 -5 -5 -5 -5 -5 -5 -5 -5 -5 -5 -5 -5 -5 -5 -5 -5 -5 -6 -5 -5 -5 -4 -4 -4 -4 -3 -3 -3 -4 -4 -4 -4 -4 -4 -4 -4 -5 -5 -6
-4 -4 -5 -5 -5 -5 -5 -5 -5 -5 -5 -5 -5 -5 -5 -5 -5 -5 -5 -5 -5 -5 -5 -6 -6 -5 -5 -5 -4 -4 -4 -4 -4 -4 -4 -4 -4 -4 -5 -5 -5 -5 -5 -6
-5 -5 -5 -5 -5 -5 -5 -5 -5 -5 -5 -5 -5 -6 -6 -6 -6 -6 -6 -5 -5 -6 -6 -5 -5 -5 -5 -5 -5 -5 -5 -5 -5 -5 -5 -4 -4 -4 -5 -5 -5 -6 -6 -6
-4 -5 -5 -5 -5 -5 -6 -6 -6 -6 -6 -6 -6 -6 -6 -6 -7 -6 -6 -6 -6 -6 -6 -6 -5 -5 -5 -5 -5 -5 -5 -5 -5 -5 -5 -5 -4 -4 -4 -4 -5 -6 -6 -6
-4 -4 -5 -5 -5 -5 -5 -6 -6 -6 -6 -6 -6 -6 -6 -7 -7 -7 -7 -6 -6 -6 -6 -6 -6 -6 -5 -5 -5 -5 -5 -5 -5 -5 -5 -4 -4 -4 -4 -4 -5 -5 -6 -7
-4 -4 -4 -5 -5 -5 -5 -5 -5 -5 -5 -6 -6 -6 -7 -7 -7 -7 -7 -6 -6 -7 -6 -6 -6 -6 -6 -5 -5 -6 -6 -6 -5 -5 -5 -5 -4 -4 -4 -4 -5 -5 -6 -7
-3 -4 -4 -4 -4 -4 -4 -4 -5 -5 -5 -5 -6 -6 -6 -7 -7 -8 -8 -8 -7 -7 -7 -7 -7 -7 -6 -6 -6 -6 -6 -6 -6 -6 -6 -5 -5 -5 -5 -5 -6 -6 -8 -8
-4 -4 -4 -4 -4 -4 -4 -4 -5 -5 -5 -5 -5 -6 -6 -7 -7 -8 -8 -8 -8 -7 -8 -8 -7 -7 -7 -7 -7 -7 -7 -7 -7 -6 -6 -6 -6 -6 -6 -6 -7 -8 -8 -9
-4 -4 -4 -4 -4 -4 -4 -5 -5 -5 -6 -6 -6 -6 -7 -7 -7 -7 -7 -7 -7 -7 -8 -8 -8 -8 -8 -8 -8 -8 -8 -8 -7 -7 -7 -7 -7 -7 -7 -7 -7 -8 -8 -8
-4 -4 -5 -4 -4 -4 -4 -5 -5 -6 -6 -6 -7 -7 -7 -8 -8 -8 -8 -8 -8 -8 -9 -9 -9 -9 -10 -9 -9 -10 -9 -8 -8 -8 -8 -8 -8 -8 -8 -8 -8 -8 -8 -8
-4 -5 -5 -5 -5 -5 -5 -5 -6 -7 -7 -8 -7 -7 -8 -8 -8 -8 -9 -9 -9 -9 -9 -10 -10 -10 -10 -10 -10 -11 -11 -9 -9 -9 -9 -9 -8 -8 -8 -8 -8 -8 -8 -8
-5 -5 -5 -5 -5 -5 -5 -6 -6 -7 -7 -8 -8 -8 -9 -9 -9 -9 -9 -9 -10 -10 -11 -10 -10 -11 -12 -13 -13 -12 -11 -11 -10 -10 -10 -9 -9 -9 -9 -9 -8 -8 -8 -8
-5 -5 -5 -5 -5 -5 -6 -6 -6 -7 -7 -8 -9 -9 -9 -10 -10 -10 -10 -10 -11 -11 -11 -11 -11 -11 -12 -12 -12 -12 -12 -11 -10 -10 -10 -9 -9 -9 -9 -9 -9 -9 -9 -9
-5 -5 -5 -5 -6 -6 -6 -6 -6 -7 -8 -8 -9 -9 -10 -10 -11 -11 -11 -11 -11 -11 -11 -11 -12 -12 -12 -13 -12 -12 -11 -11 -10 -10 -10 -10 -9 -9 -9 -9 -9 -9 -9 -9
-6 -6 -6 -6 -6 -6 -6 -6 -7 -7 -7 -8 -9 -9 -10 -10 -10 -11 -11 -11 -11 -11 -11 -11 -12 -12 -12 -12 -11 -11 -11 -11 -10 -10 -10 -10 -10 -9 -9 -9 -9 -9 -9 -9
-6 -6 -6 -7 -7 -7 -7 -7 -8 -8 -8 -8 -9 -9 -9 -10 -10 -10 -11 -11 -11 -11 -11 -11 -11 -11 -11 -11 -11 -11 -10 -10 -10 -9 -9 -9 -9 -9 -9 -9 -9 -9 -9 -9
-7 -7 -7 -8 -8 -8 -8 -8 -8 -8 -8 -9 -9 -9 -9 -10 -10 -10 -10 -10 -10 -10 -11 -11 -11 -11 -10 -10 -10 -10 -10 -10 -9 -9 -9 -9 -9 -9 -10 -10 -10 -10 -10 -10

GFSNGP_700_temp_111.txt.gz
Temp
-4 -4 -5 -3 -2 -2 -1 -2 -2 -3 -2 -2 -2 -1 -1 -1 -0 -0 1 1 1 2 2 2 1 2 2 2 2 2 1 1 1 2 1 2 1 1 1 1 1 1 0 0
-4 -5 -4 -3 -3 -3 -3 -3 -3 -2 -2 -2 -2 -2 -1 -1 -0 -0 0 1 1 1 1 1 1 1 1 1 1 1 1 1 1 1 1 1 1 1 1 1 1 0 0 -0
-4 -4 -4 -3 -4 -4 -3 -3 -3 -3 -3 -3 -2 -2 -2 -1 -1 -0 -0 0 0 1 1 1 1 1 1 1 1 1 0 0 0 0 0 0 0 0 0 0 0 0 -0 -0
-3 -3 -6 -5 -4 -4 -3 -4 -3 -3 -3 -3 -2 -2 -1 -1 -1 -0 0 0 0 0 0 1 1 1 1 1 1 0 0 0 0 0 0 -0 -0 0 1 1 0 -0 0 1
-3 -5 -5 -5 -5 -5 -4 -4 -4 -3 -3 -3 -2 -2 -2 -2 -1 -1 -0 -0 0 0 0 1 1 0 1 1 0 0 -0 -0 -0 -0 -0 -0 -0 0 0 0 0 -1 -1 -2
-3 -4 -5 -4 -4 -4 -4 -4 -4 -4 -3 -3 -3 -2 -2 -2 -1 -1 -1 -1 -0 0 0 0 0 0 0 0 0 0 0 0 0 0 0 0 -0 -0 -0 -1 -1 -2 -2 -2
-4 -4 -5 -4 -4 -4 -4 -4 -5 -4 -4 -4 -3 -3 -3 -2 -2 -2 -2 -1 -1 -1 -1 -1 -1 -0 -0 -0 -0 -0 -0 -0 -1 -1 -1 -1 -1 -1 -1 -1 -2 -2 -3 -2
-5 -4 -5 -4 -4 -4 -4 -4 -4 -4 -4 -4 -4 -4 -3 -3 -3 -3 -3 -2 -2 -2 -2 -2 -2 -2 -2 -1 -1 -1 -1 -1 -1 -2 -2 -2 -2 -2 -2 -2 -3 -3 -3 -3
-4 -4 -4 -4 -4 -4 -4 -4 -4 -4 -4 -4 -4 -4 -4 -4 -4 -4 -4 -4 -3 -3 -3 -3 -3 -3 -3 -2 -3 -3 -3 -3 -2 -2 -2 -3 -3 -3 -3 -3 -3 -3 -4 -3
-4 -4 -4 -4 -4 -4 -4 -4 -5 -5 -5 -5 -5 -5 -4 -4 -4 -4 -4 -4 -4 -4 -4 -5 -4 -4 -4 -4 -4 -3 -3 -3 -3 -3 -3 -3 -3 -3 -3 -4 -4 -4 -4 -4
-4 -4 -4 -4 -4 -5 -5 -5 -5 -5 -5 -5 -5 -5 -5 -5 -5 -5 -5 -5 -5 -5 -5 -6 -5 -5 -4 -4 -4 -4 -4 -3 -3 -3 -3 -3 -4 -4 -4 -4 -4 -4 -4 -5
-4 -4 -4 -5 -5 -5 -5 -5 -5 -5 -5 -5 -5 -5 -5 -6 -6 -6 -6 -6 -5 -6 -6 -6 -6 -6 -6 -6 -5 -5 -4 -4 -4 -4 -4 -4 -4 -4 -4 -4 -4 -4 -5 -5
-4 -4 -4 -5 -5 -5 -5 -5 -5 -5 -5 -5 -6 -6 -5 -5 -6 -6 -6 -6 -6 -6 -6 -6 -6 -6 -6 -6 -6 -6 -5 -5 -5 -5 -5 -5 -5 -5 -5 -5 -5 -5 -5 -5
-3 -4 -4 -5 -5 -5 -5 -5 -5 -5 -5 -6 -6 -6 -6 -6 -6 -7 -7 -7 -7 -7 -6 -6 -6 -6 -6 -6 -6 -6 -6 -5 -5 -5 -5 -5 -5 -5 -5 -5 -5 -5 -5 -5
-2 -3 -4 -4 -4 -4 -5 -5 -5 -5 -5 -5 -5 -6 -6 -6 -6 -7 -7 -7 -7 -6 -6 -6 -6 -6 -6 -6 -7 -7 -6 -5 -5 -5 -5 -5 -5 -5 -5 -5 -5 -5 -5 -5
-2 -3 -3 -4 -4 -4 -4 -4 -4 -4 -5 -5 -5 -5 -5 -6 -6 -6 -6 -6 -7 -7 -7 -7 -7 -7 -7 -7 -7 -7 -6 -6 -6 -6 -6 -6 -6 -6 -5 -5 -5 -5 -5 -6
-2 -3 -3 -4 -4 -4 -4 -4 -4 -4 -4 -4 -4 -4 -5 -5 -5 -6 -6 -6 -7 -8 -7 -7 -7 -7 -7 -7 -7 -8 -7 -7 -7 -7 -7 -6 -6 -6 -6 -5 -5 -5 -6 -7
-2 -3 -3 -4 -4 -4 -4 -4 -4 -4 -4 -4 -5 -5 -5 -5 -6 -6 -7 -7 -8 -8 -8 -8 -8 -8 -8 -8 -7 -8 -8 -8 -8 -8 -7 -7 -7 -7 -6 -6 -6 -6 -7 -8
-2 -3 -4 -4 -4 -4 -4 -4 -4 -4 -4 -5 -5 -6 -6 -6 -7 -7 -8 -8 -8 -8 -8 -8 -8 -8 -8 -9 -9 -9 -9 -9 -9 -9 -9 -8 -8 -7 -7 -7 -7 -7 -8 -8
-3 -3 -4 -4 -4 -4 -4 -4 -4 -4 -5 -5 -6 -6 -7 -7 -7 -8 -8 -8 -8 -8 -9 -9 -9 -9 -9 -9 -9 -10 -10 -10 -11 -11 -10 -9 -9 -9 -8 -8 -8 -8 -8 -8
-3 -3 -4 -4 -4 -5 -5 -4 -5 -5 -5 -6 -7 -7 -8 -8 -8 -8 -9 -9 -9 -9 -9 -9 -9 -10 -10 -10 -10 -10 -11 -11 -12 -12 -11 -10 -10 -10 -10 -9 -9 -9 -8 -8
-3 -4 -4 -4 -4 -5 -5 -5 -5 -5 -6 -6 -7 -8 -8 -9 -9 -9 -10 -10 -10 -10 -10 -10 -10 -11 -11 -11 -12 -12 -12 -12 -12 -12 -12 -12 -11 -11 -11 -10 -10 -9 -9 -9
-4 -4 -4 -5 -5 -5 -5 -5 -5 -5 -6 -6 -7 -8 -9 -9 -10 -10 -10 -10 -11 -11 -11 -11 -11 -11 -12 -12 -12 -13 -13 -12 -12 -12 -12 -12 -11 -11 -11 -10 -10 -10 -9 -9
-4 -5 -5 -5 -5 -5 -5 -6 -6 -6 -6 -7 -7 -8 -9 -9 -10 -10 -11 -11 -11 -11 -11 -11 -11 -12 -12 -13 -12 -13 -13 -13 -12 -12 -12 -12 -11 -11 -10 -10 -10 -10 -10 -10
-5 -5 -6 -6 -6 -6 -6 -6 -7 -6 -7 -7 -8 -8 -9 -9 -10 -11 -11 -11 -11 -11 -11 -11 -11 -11 -11 -11 -11 -12 -12 -12 -12 -11 -11 -11 -11 -10 -10 -10 -10 -10 -10 -10
-6 -6 -6 -6 -7 -7 -7 -7 -7 -8 -8 -8 -8 -8 -9 -9 -9 -10 -10 -10 -10 -11 -11 -11 -11 -11 -11 -11 -11 -11 -11 -11 -11 -11 -11 -10 -10 -10 -10 -10 -10 -10 -10 -10
-6 -6 -7 -7 -7 -8 -8 -8 -8 -8 -8 -9 -9 -9 -9 -10 -10 -10 -10 -11 -11 -11 -11 -11 -11 -11 -11 -11 -11 -11 -11 -11 -11 -11 -10 -10 -10 -10 -10 -10 -10 -10 -10 -10

GFSNGP_700_temp_114.txt.gz
Temp
-5 -4 -4 -4 -4 -2 -2 -3 -3 -3 -3 -3 -2 -2 -2 -2 -2 -1 -1 -1 -0 -0 -0 -1 -0 0 1 1 0 1 1 1 1 1 2 1 1 1 1 1 1 1 1 1
-5 -4 -4 -4 -3 -4 -3 -3 -3 -3 -3 -2 -2 -2 -2 -1 -1 -1 -0 0 0 1 1 1 1 1 1 1 1 1 1 1 1 1 1 1 1 1 1 1 1 0 0 0
-4 -4 -3 -3 -4 -4 -3 -3 -3 -3 -3 -3 -2 -1 -1 -1 -1 -1 -0 0 0 1 1 1 1 1 1 1 1 1 1 1 0 0 0 0 0 0 0 -0 -0 0 0 0
-3 -4 -2 -5 -4 -4 -3 -3 -3 -3 -2 -2 -2 -1 -1 -1 -0 -0 -0 -0 0 1 1 1 1 1 1 1 1 0 0 0 -0 -0 -0 0 -0 -0 -0 -0 -0 -0 -0 -0
-3 -4 -5 -5 -5 -4 -4 -4 -3 -3 -3 -2 -2 -2 -2 -1 -1 -1 -0 -0 0 0 0 1 1 0 0 1 1 1 0 0 -0 -0 -0 -0 -0 -0 -1 -1 -0 -0 -0 -1
-3 -3 -2 -4 -4 -5 -4 -4 -4 -4 -3 -3 -3 -3 -2 -2 -1 -1 -1 -1 -0 0 0 0 0 0 0 0 0 0 -0 -0 -0 -0 -0 -1 -1 -1 -1 -1 -1 -1 -1 -1
-4 -4 -4 -4 -4 -4 -3 -4 -4 -4 -4 -3 -3 -3 -3 -3 -2 -2 -2 -1 -1 -1 -0 -0 -0 -0 -0 -0 -0 -0 -0 -1 -1 -1 -1 -1 -1 -1 -1 -1 -1 -2 -2 -2
-4 -4 -4 -4 -4 -4 -3 -4 -4 -4 -4 -4 -4 -4 -4 -3 -3 -3 -3 -2 -2 -2 -1 -1 -1 -1 -1 -1 -2 -2 -1 -1 -1 -1 -2 -2 -2 -2 -2 -2 -2 -2 -2 -2
-4 -4 -4 -4 -3 -4 -4 -4 -4 -4 -4 -4 -4 -4 -4 -4 -4 -4 -4 -3 -3 -3 -3 -3 -3 -3 -3 -3 -3 -3 -3 -3 -3 -3 -3 -3 -3 -3 -3 -3 -3 -3 -3 -3
-4 -4 -4 -4 -4 -4 -4 -4 -4 -4 -4 -4 -4 -4 -3 -3 -3 -3 -4 -4 -4 -4 -4 -4 -5 -5 -5 -4 -5 -4 -4 -4 -4 -3 -3 -3 -3 -4 -4 -4 -4 -4 -4 -4
-4 -4 -4 -4 -4 -4 -4 -4 -4 -4 -4 -4 -4 -4 -4 -4 -4 -4 -4 -4 -4 -4 -5 -5 -5 -5 -5 -4 -4 -4 -4 -4 -4 -4 -4 -4 -4 -4 -4 -4 -4 -4 -4 -4
-3 -3 -4 -4 -4 -4 -4 -4 -4 -4 -4 -4 -4 -4 -4 -4 -4 -4 -4 -4 -4 -5 -5 -5 -5 -5 -6 -6 -6 -5 -5 -5 -5 -5 -4 -4 -4 -4 -4 -4 -4 -4 -4 -4
-3 -3 -3 -4 -4 -4 -4 -4 -4 -5 -5 -5 -5 -5 -5 -5 -5 -5 -5 -5 -5 -5 -5 -5 -5 -5 -6 -6 -6 -5 -5 -5 -6 -6 -5 -5 -5 -5 -5 -4 -4 -4 -5 -4
-2 -3 -3 -4 -4 -4 -4 -4 -4 -4 -4 -4 -5 -5 -5 -5 -5 -5 -5 -6 -6 -6 -5 -5 -5 -6 -6 -6 -6 -6 -6 -6 -6 -6 -6 -6 -6 -6 -5 -5 -6 -5 -5 -5
-1 -2 -3 -3 -3 -4 -4 -4 -4 -4 -4 -4 -5 -5 -5 -5 -5 -6 -6 -7 -7 -7 -6 -6 -6 -6 -6 -6 -6 -7 -7 -6 -6 -7 -6 -6 -6 -6 -6 -5 -5 -5 -5 -5
-1 -2 -2 -3 -3 -3 -4 -4 -4 -3 -4 -4 -4 -5 -5 -5 -5 -5 -5 -6 -6 -6 -6 -6 -7 -7 -7 -7 -7 -7 -7 -7 -7 -7 -7 -7 -7 -7 -7 -6 -6 -6 -6 -5
-1 -1 -2 -3 -3 -3 -4 -4 -4 -3 -3 -4 -4 -4 -4 -5 -5 -5 -5 -6 -6 -6 -7 -7 -8 -8 -7 -7 -7 -7 -7 -7 -7 -7 -8 -8 -8 -8 -8 -7 -7 -6 -6 -6
-0 -1 -2 -3 -3 -3 -4 -4 -3 -4 -4 -4 -4 -5 -5 -5 -6 -6 -6 -7 -7 -7 -8 -8 -8 -8 -8 -8 -8 -8 -8 -8 -8 -8 -8 -9 -9 -9 -9 -8 -9 -8 -7 -7
-1 -1 -2 -3 -3 -4 -4 -4 -4 -4 -4 -4 -4 -5 -5 -5 -6 -7 -7 -7 -8 -8 -8 -8 -8 -8 -8 -8 -8 -9 -9 -9 -10 -10 -10 -9 -9 -10 -10 -10 -9 -9 -8 -8
-1 -2 -2 -3 -3 -4 -4 -4 -4 -4 -4 -4 -5 -5 -5 -6 -7 -7 -7 -8 -8 -8 -9 -9 -8 -9 -9 -9 -9 -9 -10 -10 -10 -10 -10 -11 -12 -12 -12 -10 -10 -10 -9 -9
-1 -2 -2 -3 -4 -4 -4 -4 -4 -4 -4 -4 -5 -5 -6 -7 -8 -8 -8 -9 -9 -9 -9 -10 -10 -10 -10 -10 -10 -10 -11 -11 -12 -12 -13 -12 -13 -12 -12 -11 -11 -10 -10 -10
-2 -2 -3 -3 -4 -4 -4 -4 -4 -4 -5 -5 -5 -6 -6 -7 -8 -9 -9 -9 -10 -10 -10 -10 -11 -11 -11 -11 -11 -11 -12 -12 -13 -13 -13 -12 -12 -12 -12 -12 -11 -11 -11 -11
-2 -3 -3 -4 -4 -4 -4 -4 -5 -5 -5 -5 -6 -6 -7 -7 -8 -9 -10 -10 -10 -10 -11 -11 -11 -11 -11 -11 -12 -12 -13 -13 -13 -13 -13 -13 -13 -12 -12 -12 -13 -12 -12 -11
-3 -4 -4 -4 -4 -4 -5 -5 -5 -6 -6 -6 -6 -7 -7 -8 -8 -9 -10 -10 -10 -10 -11 -11 -11 -11 -11 -11 -11 -12 -12 -12 -12 -12 -13 -13 -12 -12 -12 -12 -12 -12 -12 -11
-4 -4 -4 -5 -5 -5 -6 -6 -6 -6 -7 -7 -7 -7 -8 -8 -9 -9 -9 -10 -10 -10 -11 -11 -11 -11 -11 -11 -11 -11 -12 -12 -12 -12 -12 -12 -12 -11 -11 -11 -11 -11 -11 -11
-4 -5 -5 -5 -6 -6 -6 -7 -7 -7 -7 -8 -8 -8 -9 -9 -9 -10 -10 -10 -10 -10 -11 -11 -11 -11 -11 -12 -12 -12 -12 -12 -12 -12 -12 -11 -11 -11 -11 -11 -11 -11 -11 -11
-5 -5 -5 -6 -6 -6 -7 -7 -8 -8 -8 -9 -9 -9 -10 -10 -10 -10 -10 -11 -11 -11 -11 -12 -12 -12 -12 -12 -12 -12 -12 -12 -12 -12 -12 -11 -11 -11 -11 -11 -11 -11 -11 -11

GFSNGP_700_temp_120.txt.gz
Temp
-3 -3 -3 -3 -3 -3 -2 -3 -3 -4 -4 -4 -3 -3 -3 -3 -3 -2 -1 -1 -0 1 1 1 1 1 1 1 1 1 1 1 1 1 1 1 2 2 2 2 1 1 1 1
-3 -3 -3 -3 -3 -3 -3 -3 -3 -4 -4 -4 -3 -2 -1 -2 -1 -0 -2 -1 -1 -1 1 1 1 1 0 0 0 1 1 1 1 1 1 1 1 1 1 1 1 1 1 1
-3 -2 -2 -3 -4 -4 -4 -4 -4 -4 -4 -3 -2 -2 -1 -1 -1 -0 -0 0 -1 -1 -1 -0 -1 -1 -1 -0 -0 -0 -0 0 1 1 1 1 1 1 1 0 0 0 1 0
-2 -1 -3 -4 -4 -4 -4 -5 -4 -4 -3 -3 -3 -3 -2 -2 -1 -1 -1 -0 0 -0 -0 -0 -0 -0 -0 -0 0 0 -0 -1 -1 -0 -0 -0 0 1 1 1 0 -0 -0 0
-2 -3 -3 -4 -4 -4 -4 -4 -4 -3 -4 -4 -3 -3 -1 -2 -1 -1 -1 -0 -0 -0 0 0 0 0 0 0 -0 -0 -1 -1 -1 -1 -1 -1 -1 -1 -0 -0 -0 -0 -0 -0
-2 -2 -3 -4 -3 -3 -3 -4 -4 -4 -3 -4 -4 -3 -3 -2 -2 -1 -1 -0 -0 -0 -0 0 0 0 0 0 0 0 -0 -0 -0 -0 -0 -1 -1 -1 -1 -1 -1 -1 -1 -1
-2 -2 -3 -3 -3 -3 -3 -4 -4 -4 -3 -3 -3 -3 -3 -3 -3 -2 -1 -1 -1 -1 -0 -0 -0 -0 -1 -1 -0 -0 -0 -0 -1 -1 -1 -1 -1 -1 -1 -1 -1 -1 -1 -1
-3 -2 -4 -3 -3 -2 -3 -3 -3 -3 -4 -3 -3 -3 -4 -4 -4 -4 -3 -2 -2 -1 -1 -1 -1 -1 -1 -1 -1 -1 -1 -1 -1 -1 -1 -1 -1 -1 -2 -2 -2 -1 -2 -2
-3 -2 -2 -2 -2 -3 -3 -3 -4 -4 -4 -3 -3 -3 -3 -3 -4 -4 -4 -4 -4 -3 -3 -2 -2 -1 -1 -1 -1 -1 -1 -2 -2 -2 -2 -2 -2 -2 -2 -2 -2 -2 -2 -2
-3 -2 -2 -3 -3 -3 -3 -3 -3 -3 -3 -3 -3 -3 -3 -3 -3 -3 -3 -3 -4 -4 -5 -4 -4 -4 -3 -3 -3 -3 -2 -3 -3 -3 -3 -3 -3 -3 -3 -3 -3 -3 -3 -4
-1 -2 -2 -2 -2 -2 -3 -3 -3 -3 -3 -3 -3 -3 -3 -3 -3 -3 -3 -3 -3 -3 -3 -4 -4 -5 -5 -5 -5 -4 -4 -4 -4 -4 -4 -4 -4 -4 -4 -3 -4 -4 -4 -4
1 -1 -1 -1 -2 -2 -2 -2 -2 -3 -3 -3 -3 -3 -3 -3 -3 -3 -3 -3 -3 -4 -4 -4 -4 -4 -5 -5 -5 -5 -5 -5 -5 -4 -4 -4 -5 -5 -5 -5 -5 -4 -4 -4
1 1 0 -1 -1 -2 -2 -2 -2 -2 -3 -2 -2 -2 -3 -3 -3 -3 -3 -3 -3 -3 -3 -4 -4 -5 -5 -5 -5 -6 -6 -6 -5 -5 -5 -5 -5 -5 -6 -6 -6 -6 -5 -5
2 1 1 0 -0 -0 -1 -1 -2 -2 -2 -2 -2 -2 -2 -2 -2 -3 -3 -3 -3 -3 -3 -4 -4 -4 -5 -5 -5 -5 -6 -6 -7 -7 -7 -6 -6 -6 -6 -6 -7 -7 -7 -6
2 2 1 1 0 0 -0 -1 -1 -1 -2 -2 -2 -2 -2 -2 -2 -3 -3 -3 -3 -3 -3 -4 -4 -4 -5 -5 -5 -6 -6 -6 -7 -7 -8 -8 -7 -7 -7 -7 -7 -7 -7 -8
2 2 1 1 1 0 -0 -0 -1 -1 -2 -2 -2 -2 -2 -2 -3 -3 -3 -3 -3 -4 -4 -4 -4 -5 -5 -6 -6 -6 -7 -7 -7 -7 -8 -8 -8 -8 -8 -8 -8 -8 -8 -8
2 2 1 1 0 0 -0 -0 -1 -1 -1 -2 -2 -2 -2 -2 -3 -3 -3 -3 -4 -4 -4 -5 -5 -6 -6 -7 -7 -7 -8 -8 -8 -8 -8 -8 -8 -8 -9 -9 -9 -9 -9 -9
3 2 2 1 1 0 0 -0 -1 -1 -1 -2 -2 -2 -2 -3 -3 -3 -3 -4 -4 -5 -5 -5 -6 -7 -7 -7 -8 -8 -8 -9 -9 -9 -9 -9 -9 -9 -9 -9 -10 -10 -10 -10
2 2 1 1 1 0 -0 -0 -1 -1 -1 -2 -2 -2 -2 -3 -3 -3 -3 -4 -5 -5 -6 -6 -7 -7 -8 -8 -8 -9 -10 -10 -10 -10 -10 -10 -10 -10 -11 -11 -11 -11 -11 -11
2 2 1 1 0 -0 -0 -1 -1 -1 -2 -2 -2 -2 -3 -3 -3 -4 -4 -5 -5 -6 -7 -7 -8 -8 -9 -9 -9 -10 -10 -10 -11 -11 -11 -11 -11 -12 -12 -12 -12 -12 -13 -13
2 1 1 0 -0 -1 -1 -1 -2 -2 -2 -2 -3 -3 -3 -3 -4 -4 -5 -5 -6 -6 -7 -8 -8 -9 -9 -10 -10 -11 -11 -11 -11 -11 -11 -12 -12 -12 -13 -13 -13 -13 -13 -13
1 1 0 -0 -1 -1 -2 -2 -2 -2 -3 -3 -3 -3 -4 -4 -5 -5 -6 -6 -7 -7 -7 -8 -9 -9 -10 -10 -11 -11 -11 -11 -12 -12 -12 -12 -12 -12 -12 -13 -13 -13 -13 -13
1 0 -0 -1 -1 -2 -2 -2 -3 -3 -3 -3 -4 -4 -4 -5 -5 -6 -6 -7 -7 -8 -8 -9 -9 -10 -10 -11 -11 -11 -12 -12 -12 -12 -12 -12 -12 -12 -12 -12 -12 -12 -12 -12
1 0 -1 -1 -2 -2 -3 -3 -4 -4 -4 -4 -4 -5 -5 -6 -6 -7 -7 -8 -8 -9 -9 -9 -10 -10 -11 -11 -12 -12 -12 -12 -12 -12 -12 -12 -12 -12 -12 -12 -12 -12 -12 -12
-0 -1 -1 -2 -3 -3 -4 -4 -4 -4 -4 -5 -5 -6 -6 -6 -7 -8 -8 -9 -9 -10 -10 -10 -10 -11 -11 -12 -12 -12 -12 -12 -12 -12 -12 -12 -12 -13 -13 -13 -12 -12 -12 -12
-1 -2 -2 -3 -3 -4 -4 -4 -5 -5 -5 -5 -6 -6 -7 -7 -8 -8 -9 -9 -10 -10 -11 -11 -11 -11 -12 -12 -12 -12 -13 -13 -13 -13 -13 -13 -13 -13 -13 -13 -13 -12 -12 -13
-2 -3 -3 -4 -4 -4 -5 -5 -5 -6 -6 -6 -6 -7 -7 -8 -8 -9 -9 -10 -11 -11 -12 -12 -12 -12 -12 -13 -13 -13 -13 -13 -13 -13 -13 -13 -13 -13 -13 -13 -13 -13 -13 -13

GFSNGP_700_temp_123.txt.gz
Temp
-4 -3 -3 -3 -3 -3 -3 -3 -4 -5 -5 -5 -5 -4 -4 -4 -2 -1 -0 0 1 1 1 1 2 1 2 3 1 2 2 1 1 1 1 1 1 1 1 1 1 1 1 1
-4 -3 -3 -3 -3 -3 -3 -4 -4 -4 -4 -5 -4 -3 -3 -3 -4 -2 -1 -1 1 1 1 1 1 1 1 1 1 1 1 1 1 1 1 1 1 1 1 1 1 1 1 1
-2 -2 -2 -3 -4 -4 -4 -4 -4 -4 -4 -4 -3 -2 -3 -3 -2 -3 -3 -1 -1 -0 0 1 0 1 -0 0 0 0 0 1 -0 -0 -0 -0 0 0 1 1 1 0 1 1
-2 -2 -5 -4 -4 -4 -4 -4 -4 -4 -3 -3 -3 -3 -2 -3 -2 -2 -1 0 0 -0 0 1 -0 -0 0 -0 -0 -0 -0 0 0 0 1 1 0 0 0 0 -0 0 -0 0
-2 -4 -4 -4 -4 -4 -4 -4 -4 -4 -3 -3 -3 -3 -2 -2 -1 -1 -1 -1 -1 -1 -0 -0 0 0 0 0 0 0 -0 -1 -1 -0 0 0 1 0 0 0 -0 -0 -0 -0
-2 -2 -3 -3 -3 -4 -4 -4 -4 -4 -3 -3 -3 -2 -2 -2 -2 -2 -1 -1 -1 -1 -0 -0 0 0 -0 -0 -0 0 -0 -0 -1 -1 -1 -1 -0 -0 0 -0 -1 -0 -1 -1
-2 -2 -3 -3 -3 -3 -4 -4 -4 -3 -2 -3 -3 -2 -2 -2 -2 -2 -1 -1 -1 -1 -1 -0 -0 -0 -0 -0 -0 0 -0 -0 -0 -1 -1 -1 -1 -1 -1 -1 -1 -1 -1 -1
-3 -3 -4 -3 -3 -3 -2 -3 -3 -3 -2 -2 -2 -2 -3 -3 -3 -2 -2 -2 -2 -1 -1 -1 -1 -1 -1 -1 -0 -0 -0 -0 -0 -0 -0 -1 -2 -2 -2 -2 -2 -2 -2 -2
-2 -2 -2 -2 -3 -2 -3 -3 -3 -4 -3 -3 -3 -2 -2 -2 -2 -2 -2 -2 -2 -1 -2 -2 -2 -2 -2 -1 -1 -1 -1 -1 -1 -1 -1 -1 -1 -1 -2 -2 -3 -3 -2 -2
-2 -1 -1 -2 -2 -2 -3 -3 -3 -3 -4 -4 -4 -3 -3 -3 -3 -3 -3 -2 -2 -2 -2 -2 -2 -2 -2 -2 -2 -2 -3 -2 -2 -2 -2 -3 -2 -3 -3 -3 -3 -3 -3 -3
-1 -1 -1 -1 -2 -2 -2 -3 -3 -4 -4 -4 -4 -4 -4 -4 -4 -3 -3 -3 -3 -3 -3 -3 -3 -2 -2 -3 -3 -3 -3 -3 -3 -3 -3 -3 -3 -4 -4 -5 -5 -4 -4 -4
1 -0 -0 -1 -2 -2 -3 -3 -3 -3 -4 -4 -4 -4 -4 -4 -4 -4 -4 -3 -3 -3 -3 -3 -3 -3 -4 -4 -4 -4 -3 -3 -3 -4 -4 -4 -4 -4 -4 -5 -5 -5 -5 -5
1 1 -0 -1 -1 -1 -2 -2 -2 -3 -3 -3 -3 -3 -3 -3 -3 -4 -4 -4 -4 -4 -3 -3 -4 -4 -4 -4 -3 -4 -4 -4 -4 -4 -4 -4 -5 -5 -5 -6 -6 -6 -6 -6
2 1 1 0 -0 -1 -1 -1 -2 -2 -2 -2 -2 -2 -2 -2 -2 -3 -3 -3 -3 -3 -3 -3 -4 -4 -4 -4 -4 -4 -5 -5 -5 -5 -5 -5 -5 -5 -6 -6 -6 -7 -7 -7
3 2 2 1 1 0 -0 -0 -1 -1 -1 -1 -1 -1 -1 -1 -2 -2 -2 -3 -3 -3 -3 -3 -3 -4 -4 -4 -4 -5 -5 -6 -6 -6 -7 -7 -7 -7 -7 -7 -7 -7 -7 -7
3 2 2 2 1 1 0 0 -0 -1 -1 -1 -1 -1 -1 -1 -1 -2 -2 -2 -2 -2 -3 -3 -3 -3 -4 -4 -4 -5 -5 -6 -7 -7 -7 -8 -8 -8 -8 -8 -7 -7 -8 -8
3 3 2 2 1 1 1 0 0 -0 -0 -1 -1 -1 -1 -1 -1 -1 -2 -2 -3 -3 -3 -3 -4 -4 -4 -5 -5 -6 -7 -7 -8 -8 -8 -9 -9 -9 -9 -9 -9 -9 -9 -9
3 3 3 2 2 2 1 1 0 -0 -0 -0 -0 -1 -1 -1 -1 -2 -2 -3 -3 -3 -3 -4 -4 -5 -5 -6 -6 -7 -8 -8 -9 -9 -10 -10 -10 -10 -10 -10 -10 -10 -10 -10
3 3 3 2 2 2 1 1 0 -0 -0 -1 -1 -1 -1 -1 -2 -2 -2 -3 -3 -3 -4 -4 -5 -6 -6 -7 -8 -8 -9 -10 -10 -10 -11 -11 -11 -11 -11 -11 -11 -11 -11 -11
3 3 3 2 2 1 1 0 -0 -0 -1 -1 -1 -1 -2 -2 -2 -3 -3 -3 -4 -4 -4 -5 -6 -6 -7 -8 -8 -9 -10 -11 -11 -11 -11 -12 -12 -12 -12 -12 -12 -12 -12 -12
3 3 2 2 1 1 1 0 -0 -1 -1 -1 -2 -2 -2 -3 -3 -3 -3 -4 -4 -5 -5 -6 -7 -7 -8 -8 -9 -10 -11 -11 -11 -12 -12 -12 -12 -12 -12 -12 -12 -12 -12 -13
3 3 2 2 1 1 0 -0 -1 -1 -2 -2 -2 -3 -3 -3 -3 -4 -4 -4 -5 -6 -6 -7 -7 -8 -8 -9 -10 -10 -11 -12 -12 -12 -12 -12 -13 -13 -12 -12 -12 -12 -12 -12
3 2 2 1 0 0 -0 -1 -1 -2 -2 -3 -3 -3 -4 -4 -4 -4 -5 -5 -6 -6 -7 -8 -8 -9 -9 -10 -10 -11 -12 -12 -12 -12 -12 -12 -13 -13 -13 -13 -13 -13 -13 -13
2 2 1 1 0 -1 -1 -1 -2 -2 -3 -3 -4 -4 -4 -4 -5 -5 -6 -7 -7 -8 -8 -9 -9 -10 -10 -11 -11 -11 -12 -12 -12 -12 -13 -13 -13 -13 -13 -13 -13 -13 -13 -13
1 1 1 -0 -1 -1 -2 -2 -3 -3 -3 -4 -4 -4 -4 -5 -5 -6 -7 -7 -7 -8 -9 -10 -10 -11 -11 -12 -12 -12 -12 -12 -13 -13 -13 -13 -13 -13 -13 -13 -13 -13 -13 -13
1 0 -1 -1 -2 -2 -2 -3 -3 -4 -4 -4 -5 -5 -5 -6 -6 -6 -7 -7 -8 -8 -9 -10 -11 -11 -12 -12 -13 -13 -13 -13 -13 -13 -13 -14 -14 -14 -14 -14 -14 -14 -14 -13
-0 -1 -1 -2 -2 -3 -3 -4 -4 -4 -5 -5 -5 -6 -6 -6 -7 -7 -7 -8 -8 -9 -10 -10 -11 -12 -13 -13 -13 -13 -14 -14 -14 -14 -14 -14 -14 -14 -14 -14 -14 -14 -14 -14

GFSNGP_700_temp_126.txt.gz
Temp
-4 -4 -3 -4 -3 -3 -4 -4 -5 -5 -5 -5 -5 -4 -4 -3 -2 -1 -1 -1 0 1 1 1 1 1 1 2 1 1 2 1 1 0 1 1 1 1 1 1 2 0 0 1
-4 -3 -3 -4 -4 -3 -3 -4 -4 -4 -5 -5 -5 -5 -4 -4 -3 -2 -1 -1 1 0 1 1 1 1 1 1 1 1 1 1 0 0 1 1 1 1 1 1 1 1 1 1
-3 -3 -3 -3 -4 -4 -4 -4 -3 -5 -5 -5 -3 -3 -4 -4 -4 -2 -1 -1 0 0 0 0 1 1 1 1 1 1 1 1 1 1 1 1 1 1 1 0 1 1 1 1
-2 -2 -5 -4 -4 -4 -4 -4 -3 -4 -4 -4 -4 -3 -2 -2 -1 -2 -1 -1 -1 -1 -1 -0 -0 -0 0 0 0 1 0 -0 -0 -0 1 0 1 1 1 1 1 1 1 0
-2 -4 -4 -3 -4 -4 -3 -3 -3 -3 -3 -3 -4 -3 -1 -1 -2 -1 -1 -0 -0 -1 -1 -0 -0 -0 -0 0 -0 -0 -0 -0 -1 -0 -1 -1 -1 -0 -1 -0 0 -1 -0 1
-2 -3 -4 -2 -3 -3 -2 -2 -3 -3 -3 -3 -3 -1 -3 -3 -2 -2 -1 -1 -1 -0 -0 -0 1 0 0 0 0 0 0 0 0 0 0 0 0 -0 -0 -0 -0 -1 -1 -0
-2 -2 -2 -2 -2 -3 -3 -2 -2 -2 -2 -2 -2 -2 -2 -3 -3 -2 -2 -1 -1 -2 -1 0 0 0 0 0 0 0 0 0 0 0 0 1 1 1 0 0 0 -0 -1 -1
-3 -2 -3 -1 -2 -2 -2 -2 -2 -2 -2 -2 -2 -2 -2 -2 -2 -2 -2 -2 -2 -2 -1 -0 -0 -0 -0 -0 0 0 0 0 0 0 0 -0 -0 -0 0 1 1 0 -1 -1
-2 -1 -1 -1 -1 -1 -1 -2 -2 -2 -2 -2 -2 -3 -2 -2 -2 -2 -2 -2 -1 -1 -1 -1 -1 -1 -0 -0 -1 -0 -0 -0 0 -0 -0 -0 -0 -1 -1 -2 -1 -1 -1 -1
-1 -0 -1 -1 -1 -1 -1 -1 -1 -2 -2 -2 -2 -2 -2 -2 -2 -2 -1 -1 -1 -1 -2 -1 -2 -2 -0 0 0 -1 -2 -1 -1 -1 -1 -1 -1 -1 -1 -1 -2 -2 -2 -2
0 0 0 0 -1 -1 -1 -1 -1 -2 -2 -2 -2 -2 -2 -2 -2 -2 -2 -1 -1 -1 -1 -1 -1 -1 -1 -1 -1 0 -0 -1 -1 -1 -2 -2 -2 -2 -2 -2 -3 -3 -3 -3
2 1 1 1 -0 -0 -1 -1 -2 -2 -2 -2 -1 -1 -2 -2 -2 -2 -2 -2 -2 -3 -3 -3 -2 -2 -2 -2 -2 -1 -1 -1 -1 -1 -2 -3 -3 -3 -3 -4 -4 -4 -4 -5
2 1 1 1 -0 -1 -1 -1 -2 -1 -2 -2 -2 -2 -2 -2 -2 -2 -2 -3 -3 -2 -2 -3 -3 -3 -3 -3 -3 -3 -3 -3 -3 -3 -3 -3 -3 -4 -5 -5 -5 -5 -5 -6
3 2 1 1 1 0 -1 -1 -1 -1 -1 -2 -2 -2 -2 -3 -3 -3 -3 -3 -3 -3 -3 -3 -3 -3 -3 -3 -3 -3 -4 -4 -4 -4 -4 -5 -5 -5 -5 -6 -6 -7 -7 -7
3 2 2 1 1 1 1 0 0 -0 -1 -1 -1 -1 -1 -1 -1 -2 -2 -2 -2 -2 -2 -2 -2 -2 -2 -3 -3 -3 -4 -4 -5 -5 -6 -7 -7 -7 -7 -7 -7 -7 -8 -8
4 3 3 2 1 1 1 1 1 0 -0 -1 -1 -1 -1 -1 -1 -1 -2 -2 -2 -2 -2 -2 -2 -3 -3 -3 -4 -4 -4 -5 -6 -6 -7 -8 -8 -8 -8 -8 -8 -8 -8 -8
4 4 4 3 3 2 1 1 0 -0 -0 -1 -1 -1 -1 -1 -1 -1 -2 -2 -2 -2 -2 -3 -3 -3 -4 -5 -5 -5 -6 -6 -7 -8 -8 -8 -9 -9 -9 -9 -10 -10 -10 -10
4 3 3 3 2 2 2 1 0 0 -0 -1 -1 -1 -1 -1 -2 -2 -2 -2 -2 -3 -3 -3 -4 -4 -5 -5 -6 -6 -7 -8 -8 -9 -9 -10 -10 -10 -10 -11 -10 -10 -10 -11
4 4 3 3 3 2 2 1 0 0 -0 -1 -1 -1 -1 -1 -2 -2 -2 -2 -2 -3 -3 -4 -4 -5 -5 -6 -6 -7 -7 -8 -9 -9 -10 -10 -11 -11 -11 -11 -11 -11 -11 -12
4 4 3 3 2 2 1 1 1 0 -0 -1 -1 -1 -1 -2 -2 -2 -2 -3 -3 -3 -4 -4 -5 -5 -6 -6 -7 -7 -8 -8 -9 -10 -10 -11 -11 -12 -12 -12 -12 -12 -12 -12
4 4 3 3 2 2 1 1 0 0 -0 -1 -1 -2 -2 -2 -2 -3 -3 -3 -3 -4 -4 -5 -5 -6 -6 -7 -7 -8 -9 -9 -10 -10 -11 -11 -12 -12 -12 -13 -13 -13 -12 -12
4 3 3 2 2 1 1 0 -0 -0 -1 -1 -2 -2 -2 -3 -3 -3 -3 -4 -4 -5 -5 -5 -6 -6 -7 -8 -9 -9 -10 -10 -10 -11 -12 -12 -12 -12 -13 -13 -13 -13 -13 -12
3 2 2 2 1 0 -0 -0 -1 -1 -1 -2 -2 -3 -3 -3 -3 -4 -4 -4 -5 -5 -6 -6 -6 -7 -8 -9 -9 -10 -11 -11 -11 -12 -12 -12 -13 -13 -13 -13 -13 -13 -13 -13
2 2 2 1 0 1 0 -1 -1 -2 -2 -3 -3 -3 -3 -4 -4 -4 -5 -5 -6 -6 -6 -7 -7 -8 -9 -9 -10 -11 -11 -12 -12 -12 -13 -13 -13 -13 -14 -14 -14 -14 -13 -13
2 1 1 1 1 -1 -1 -1 -2 -2 -3 -3 -4 -4 -4 -4 -5 -5 -5 -6 -6 -6 -7 -7 -8 -9 -9 -10 -11 -11 -12 -13 -13 -13 -13 -13 -14 -14 -14 -14 -14 -14 -14 -14
1 1 1 -0 -1 -3 -3 -3 -3 -3 -4 -4 -4 -5 -5 -5 -5 -6 -6 -6 -7 -7 -8 -8 -9 -9 -10 -11 -12 -12 -13 -13 -14 -14 -14 -14 -15 -15 -15 -15 -14 -14 -14 -14
-1 -0 -0 -1 -2 -2 -3 -4 -4 -5 -5 -5 -5 -5 -5 -6 -6 -6 -7 -7 -7 -8 -8 -8 -9 -10 -11 -11 -12 -13 -14 -14 -14 -15 -15 -15 -15 -15 -15 -16 -15 -15 -15 -15

GFSNGP_700_temp_129.txt.gz
Temp
-4 -4 -3 -3 -4 -4 -3 -4 -5 -5 -6 -6 -5 -5 -4 -3 -2 -2 -1 -1 -1 -1 0 -0 0 0 0 1 1 1 2 0 1 0 2 2 2 2 1 1 0 -1 -0 1
-4 -4 -4 -3 -4 -4 -3 -4 -4 -5 -5 -6 -5 -5 -4 -3 -2 -2 -1 -0 0 1 0 -0 0 1 1 1 1 1 1 1 0 0 1 1 1 0 1 0 1 1 1 1
-3 -3 -3 -4 -4 -4 -4 -4 -3 -4 -5 -6 -5 -5 -4 -4 -3 -2 -1 -0 -0 0 -0 0 0 0 -0 0 1 1 1 0 1 1 1 1 1 0 1 1 1 1 1 0
-3 -3 -4 -2 -3 -3 -3 -4 -3 -3 -3 -4 -5 -5 -4 -4 -4 -2 -2 -1 -1 -1 -0 -0 -0 -0 0 0 1 1 1 1 0 0 0 0 1 1 1 1 1 1 1 0
-3 -3 -2 -2 -2 -3 -3 -3 -3 -2 -2 -2 -3 -3 -3 -3 -2 -2 -1 -1 -1 -0 0 0 0 0 0 1 1 1 1 1 1 1 1 1 0 0 1 0 -0 -0 0 0
-3 -3 -4 -1 -2 -2 -3 -2 -3 -2 -2 -1 -2 -0 -1 -1 -2 -1 -1 -1 -1 -1 -0 0 1 0 0 1 0 0 0 0 0 0 0 0 1 1 1 1 1 1 1 1
-2 -2 -1 -0 -1 -2 -2 -2 -2 -2 -2 -2 -2 -2 -2 -2 -1 -1 -1 -0 -1 -1 -0 0 -0 -0 -0 0 0 1 1 1 1 1 1 1 1 0 1 1 1 0 1 1
-2 -2 -3 -0 -1 -1 -1 -1 -2 -2 -2 -2 -2 -2 -2 -2 -2 -2 -1 -1 -1 -1 -1 -1 -1 -1 -1 -0 0 0 1 0 1 1 1 1 1 1 1 1 1 1 1 0
-1 -0 1 0 -0 -1 -1 -1 -1 -2 -2 -2 -2 -2 -2 -2 -2 -2 -1 -1 -0 -1 -1 -0 -0 0 -0 -0 -1 -0 0 -0 -0 -0 -1 -0 0 -0 -0 -0 -0 -0 -0 -0
0 2 1 1 1 0 0 -0 -0 -0 -1 -1 -1 -1 -1 -1 -1 -0 -0 0 -0 -0 1 0 -1 -0 1 0 -0 -0 -0 -1 -1 -1 -1 -1 -1 -1 -1 -1 -1 -1 -1 -1
3 3 3 3 3 2 1 1 1 1 1 1 0 -0 -0 -0 -0 0 0 0 0 1 1 0 1 1 1 1 1 1 -0 -1 -1 -1 -0 -1 -1 -1 -2 -2 -2 -3 -3 -3
4 4 3 3 2 2 2 1 1 1 0 -0 -1 -1 -1 -1 -0 -0 -0 -0 -1 -1 -1 -1 -1 -1 -1 -1 -1 -1 -1 -1 -0 -0 -0 -1 -1 -1 -1 -1 -2 -2 -3 -3
4 3 3 3 3 2 2 1 1 0 -0 -0 -1 -1 -1 -1 -1 -1 -1 -1 -1 -2 -2 -2 -2 -2 -2 -2 -2 -3 -2 -2 -2 -2 -2 -2 -2 -2 -2 -2 -2 -3 -3 -4
4 4 4 3 3 2 2 1 1 1 1 0 -0 -1 -1 -1 -1 -2 -2 -2 -2 -2 -2 -3 -3 -3 -4 -4 -4 -4 -4 -3 -3 -4 -3 -3 -3 -3 -3 -4 -4 -5 -5 -5
5 4 4 3 2 3 2 1 1 0 -0 -0 -0 -1 -1 -1 -2 -2 -2 -2 -2 -3 -3 -3 -3 -3 -4 -4 -4 -4 -4 -4 -4 -4 -4 -5 -5 -5 -5 -5 -6 -6 -7 -7
4 4 4 4 3 3 2 2 1 1 0 -0 -1 -1 -1 -1 -1 -2 -2 -2 -2 -2 -2 -2 -2 -3 -3 -3 -3 -4 -4 -4 -5 -5 -5 -6 -6 -6 -6 -7 -7 -8 -8 -8
5 5 5 4 4 4 3 2 1 0 -0 -0 -1 -1 -1 -1 -1 -2 -1 -1 -1 -2 -2 -2 -3 -3 -3 -3 -4 -4 -4 -5 -5 -6 -6 -7 -7 -7 -8 -8 -9 -9 -10 -10
5 4 3 3 3 2 2 2 1 1 1 -0 0 -0 -1 -1 -1 -1 -1 -1 -2 -2 -2 -2 -3 -3 -3 -4 -4 -4 -5 -5 -6 -6 -7 -7 -8 -9 -9 -10 -10 -11 -11 -11
4 4 4 4 3 3 3 2 1 1 1 1 0 -0 -1 -1 -1 -1 -1 -2 -1 -2 -2 -3 -3 -3 -4 -4 -4 -5 -6 -6 -7 -7 -8 -8 -9 -10 -10 -11 -11 -12 -12 -12
4 4 3 3 3 3 3 2 2 1 1 0 0 -0 -1 -1 -1 -1 -2 -2 -2 -2 -3 -3 -4 -4 -4 -5 -5 -6 -6 -7 -7 -8 -8 -9 -10 -11 -11 -12 -12 -12 -13 -13
4 3 3 3 2 2 2 2 1 1 0 0 -0 -1 -1 -1 -2 -2 -2 -3 -3 -3 -3 -4 -4 -4 -5 -5 -6 -7 -7 -8 -8 -9 -10 -10 -11 -12 -12 -12 -13 -13 -13 -13
3 3 3 2 2 2 1 1 0 0 0 -0 -1 -1 -2 -2 -2 -3 -3 -3 -3 -4 -4 -5 -5 -5 -6 -6 -7 -7 -8 -8 -9 -10 -11 -11 -12 -12 -12 -13 -13 -13 -13 -13
2 2 3 3 2 1 0 0 -0 -1 -1 -2 -2 -2 -3 -3 -3 -4 -4 -4 -4 -5 -5 -5 -6 -6 -6 -7 -7 -8 -8 -9 -10 -11 -12 -12 -13 -13 -13 -13 -13 -14 -14 -14
1 1 1 1 2 1 1 -0 -1 -2 -2 -3 -3 -3 -4 -4 -4 -4 -5 -5 -5 -5 -6 -6 -6 -6 -7 -7 -8 -9 -9 -10 -11 -11 -12 -13 -13 -13 -13 -14 -14 -14 -14 -14
0 0 0 0 0 1 -0 -1 -2 -2 -3 -4 -4 -4 -5 -5 -5 -5 -5 -6 -6 -6 -6 -7 -7 -7 -7 -8 -8 -9 -10 -10 -11 -12 -13 -13 -14 -14 -14 -14 -15 -15 -15 -15
-2 -2 -1 -1 -1 -1 -1 -2 -2 -3 -4 -4 -5 -5 -6 -6 -6 -6 -7 -8 -8 -7 -7 -7 -7 -7 -8 -8 -9 -9 -10 -11 -12 -13 -14 -14 -15 -15 -15 -15 -16 -16 -16 -15
-4 -4 -4 -2 -2 -2 -2 -2 -3 -4 -5 -5 -6 -6 -7 -7 -8 -9 -9 -10 -10 -8 -7 -8 -8 -8 -8 -9 -9 -10 -11 -11 -12 -13 -15 -15 -15 -16 -16 -16 -16 -16 -16 -16

GFSNGP_700_temp_132.txt.gz
Temp
-4 -4 -4 -4 -3 -3 -4 -4 -4 -5 -5 -5 -5 -4 -4 -3 -2 -2 -1 -1 -1 -1 -1 -1 0 -0 -0 0 -0 0 -0 -0 0 -0 0 0 1 2 2 2 2 2 2 2
-4 -4 -4 -4 -3 -3 -3 -4 -3 -3 -4 -5 -4 -4 -4 -3 -2 -2 -1 -1 -1 -1 -0 -0 0 0 1 0 0 -0 -0 -0 1 1 0 1 2 1 1 2 2 2 2 1
-3 -3 -3 -3 -3 -3 -3 -3 -3 -2 -2 -3 -4 -4 -4 -3 -3 -2 -2 -1 -0 -0 -0 -1 -0 1 0 1 1 0 0 -0 -0 -0 -0 0 0 1 1 1 1 1 1 1
-3 -3 -5 -2 -2 -3 -2 -3 -2 -2 -2 -3 -3 -3 -4 -3 -3 -3 -2 -2 -2 -1 -1 -1 -1 -0 0 0 0 0 1 1 0 1 1 1 1 1 1 1 0 0 1 1
-3 -3 -2 -2 -1 -2 -2 -2 -2 -2 -2 -2 -2 -3 -2 -2 -2 -1 -1 -1 -1 -1 -1 -1 -1 -1 -0 -0 -0 -0 0 0 0 0 0 1 1 2 2 2 2 1 1 0
-3 -3 -4 -1 -1 -2 -2 -1 -1 -2 -2 -2 -2 -2 -2 -2 -2 -2 -1 -1 -1 -1 -0 -0 -0 -1 -0 -1 -0 -0 -0 0 -0 -0 1 1 1 1 1 1 1 1 1 2
-3 -3 -1 -1 -1 -2 -2 -1 -1 -1 -2 -2 -2 -2 -2 -2 -2 -2 -2 -1 -1 -1 -0 1 0 -0 0 -0 0 1 1 0 0 1 1 1 1 0 0 0 0 0 -0 -1
-3 -3 -2 -0 -1 -1 -0 -1 -1 -1 -1 -1 -1 -2 -2 -2 -2 -2 -1 -1 -1 -1 -0 0 -0 -0 -0 -0 1 0 0 0 1 0 -0 0 1 1 1 1 1 1 1 0
-1 1 1 0 0 -0 -0 -0 -1 -1 -1 -1 -1 -1 -1 -2 -2 -1 -2 -2 -1 -1 -0 -0 0 1 0 1 1 1 0 1 2 1 1 1 1 1 1 1 0 -0 -0 -0
1 2 2 1 1 1 0 0 -0 -0 -1 -1 -0 -0 0 -0 -0 -1 -0 -0 0 0 -0 0 1 1 1 1 1 0 0 1 1 1 1 1 1 1 1 1 0 0 -0 -0
4 4 3 3 2 2 1 1 0 0 0 1 1 1 1 1 1 1 1 1 1 1 1 1 1 1 1 1 1 1 1 1 1 1 0 0 1 0 0 -0 -0 -0 -1 -1
4 5 5 4 4 4 3 2 2 2 1 1 1 1 1 0 0 0 0 0 0 0 0 0 0 -0 -0 -0 -0 -0 -1 -1 -1 -1 -1 -1 -1 -1 -1 -1 -1 -1 -1 -1
5 5 5 4 5 4 4 3 3 2 2 1 1 0 0 0 0 -0 -0 -0 -0 -0 -0 -0 -1 -1 -1 -1 -1 -1 -2 -2 -2 -2 -2 -2 -2 -2 -3 -3 -3 -3 -3 -3
5 5 5 4 4 4 3 3 3 2 2 1 1 0 -0 -0 -0 -0 -0 -1 -1 -1 -1 -1 -1 -2 -2 -2 -2 -2 -3 -3 -3 -3 -3 -4 -4 -4 -4 -4 -4 -5 -5 -5
5 5 5 4 4 4 3 3 3 2 2 1 1 0 0 -0 -0 -0 -1 -1 -1 -1 -1 -2 -2 -2 -2 -2 -3 -3 -3 -4 -4 -4 -4 -4 -5 -5 -5 -6 -6 -6 -7 -7
5 5 5 5 4 4 4 4 3 2 2 1 1 1 0 -0 -1 -1 -1 -1 -1 -2 -2 -2 -3 -3 -3 -3 -3 -3 -3 -4 -4 -4 -5 -5 -6 -6 -6 -7 -7 -7 -8 -8
5 5 5 4 4 3 3 3 2 1 1 1 1 0 0 -0 -1 -1 -1 -1 -2 -2 -2 -2 -2 -3 -3 -3 -3 -4 -4 -4 -5 -5 -6 -6 -6 -7 -7 -7 -8 -9 -9 -10
5 5 5 4 3 3 3 2 2 2 2 1 1 1 0 -0 -1 -1 -1 -1 -2 -2 -2 -2 -3 -3 -3 -3 -4 -4 -4 -5 -5 -6 -6 -6 -7 -7 -8 -9 -9 -10 -10 -11
5 4 4 4 3 3 3 3 2 1 1 1 1 0 -0 -1 -1 -1 -1 -2 -2 -2 -2 -3 -3 -3 -3 -3 -4 -4 -5 -5 -6 -6 -6 -7 -7 -8 -9 -10 -10 -11 -11 -11
4 4 3 3 3 3 3 3 2 2 2 1 1 0 -0 -1 -1 -1 -2 -2 -2 -2 -3 -3 -3 -3 -4 -4 -4 -5 -5 -6 -6 -7 -7 -8 -8 -9 -10 -11 -11 -12 -12 -12
3 3 3 3 3 3 3 2 2 2 2 1 1 0 -1 -1 -1 -2 -2 -2 -3 -2 -3 -3 -3 -4 -5 -5 -5 -5 -6 -6 -7 -7 -7 -8 -9 -10 -11 -12 -12 -12 -13 -13
1 1 2 2 2 1 2 1 1 1 1 1 0 0 -0 -1 -1 -2 -2 -3 -3 -3 -4 -4 -4 -4 -5 -5 -6 -6 -6 -6 -7 -7 -8 -9 -10 -11 -11 -12 -13 -13 -13 -13
0 0 0 1 1 1 1 1 1 1 1 0 -0 -1 -1 -2 -2 -2 -3 -3 -4 -4 -4 -5 -5 -5 -5 -6 -6 -6 -6 -7 -7 -8 -9 -10 -10 -11 -12 -13 -14 -14 -14 -14
-1 -1 -0 -1 -1 -1 -0 -0 -1 -1 -0 -1 -1 -1 -2 -2 -3 -3 -4 -4 -5 -5 -5 -6 -7 -8 -6 -6 -7 -7 -7 -7 -8 -9 -9 -10 -11 -12 -13 -14 -14 -14 -15 -15
-2 -2 -2 -2 -2 -2 -2 -2 -2 -2 -1 -1 -2 -2 -2 -3 -4 -4 -5 -5 -6 -6 -7 -7 -7 -9 -8 -7 -7 -7 -8 -8 -9 -9 -10 -11 -12 -13 -14 -15 -15 -15 -16 -16
-4 -3 -3 -3 -3 -3 -4 -4 -4 -3 -3 -3 -3 -3 -4 -4 -5 -5 -6 -6 -7 -7 -7 -7 -8 -9 -9 -8 -8 -8 -8 -8 -9 -9 -10 -11 -13 -14 -15 -15 -16 -16 -16 -16
-5 -5 -4 -4 -4 -4 -5 -5 -5 -5 -5 -5 -5 -6 -5 -6 -6 -7 -7 -8 -7 -7 -8 -8 -9 -11 -10 -8 -8 -8 -9 -9 -9 -9 -10 -11 -13 -14 -16 -16 -17 -17 -17 -17

GFSNGP_700_temp_135.txt.gz
Temp
-3 -3 -3 -4 -4 -4 -4 -4 -4 -3 -3 -4 -4 -4 -3 -2 -2 -2 -1 -1 -1 -1 -0 -0 1 0 -1 -0 -0 -1 -2 -3 -4 -2 -3 -2 -1 -1 -1 -0 1 1 2 2
-3 -3 -3 -3 -3 -3 -3 -3 -3 -3 -3 -4 -4 -4 -3 -2 -2 -2 -2 -1 -1 -1 -1 -1 -1 -1 -0 -0 0 -1 -1 -1 -2 -3 -3 -1 -0 1 1 1 1 2 2 2
-3 -3 -4 -3 -1 -2 -2 -2 -3 -2 -2 -2 -2 -3 -3 -3 -2 -2 -1 -1 -1 -1 -1 -1 -1 -0 -1 -1 -0 -1 -0 -2 -1 -1 -0 0 0 1 1 1 0 0 0 0
-3 -3 -5 -1 -1 -2 -2 -2 -2 -2 -2 -2 -2 -2 -3 -3 -2 -2 -2 -2 -2 -2 -2 -2 -1 -1 -1 -1 -0 -0 0 -0 -0 -0 0 -0 0 0 0 0 0 1 1 1
-4 -4 -2 -0 -1 -1 -1 -1 -1 -1 -2 -2 -2 -2 -2 -2 -2 -2 -1 -1 -1 -1 -1 -1 -1 -1 -1 -1 -0 -1 -1 -1 -1 -0 -0 -0 0 0 1 1 1 1 1 1
-4 -4 -4 -1 -1 -1 -1 -0 -0 -1 -1 -1 -1 -2 -2 -2 -2 -2 -2 -2 -2 -2 -1 -1 -1 -1 -1 0 0 0 -0 -0 -1 -1 -1 -0 -0 -0 -0 0 0 0 -0 0
-4 -4 -1 -0 -1 -1 -2 -0 -1 -1 -1 -1 -1 -1 -2 -2 -2 -2 -2 -2 -2 -2 -1 -0 -0 -0 -0 -0 1 1 0 0 0 0 0 0 0 1 1 0 1 1 1 1
-3 -4 -2 1 -0 -0 0 -0 -1 -1 -1 -1 -1 -1 -1 -1 -1 -1 -1 -2 -1 -1 -1 -0 -0 -0 0 -0 0 -0 -0 -0 -0 0 1 0 0 0 0 0 0 -0 0 0
-1 1 1 1 1 0 0 0 0 0 0 -0 -0 -1 -1 -1 -0 -0 -0 -1 -0 -0 1 0 0 1 1 1 1 1 1 1 1 1 1 1 1 1 1 1 1 1 1 1
1 3 3 3 2 1 1 1 1 1 1 1 1 0 -0 -0 -0 0 0 0 1 1 1 1 1 1 1 1 1 1 1 1 1 1 1 1 1 1 1 1 1 1 0 0
4 4 4 4 4 3 3 2 2 2 1 1 1 1 1 1 1 1 1 1 1 1 1 1 1 1 1 1 1 1 1 1 1 0 0 0 -0 -0 -0 -0 -0 -1 -1 -1
3 3 3 4 4 4 4 3 3 3 3 3 2 2 2 2 1 1 1 1 1 1 1 1 1 1 1 0 0 0 0 -0 -0 -0 -1 -1 -1 -1 -1 -1 -2 -2 -2 -2
5 5 5 4 4 4 4 4 4 3 3 3 2 2 2 2 1 1 1 1 1 1 1 1 0 0 0 0 -0 -0 -1 -1 -1 -1 -2 -2 -2 -2 -3 -3 -3 -3 -4 -4
4 5 5 5 4 4 4 4 4 4 3 3 3 2 2 1 1 1 1 0 0 0 0 0 0 -0 -0 -1 -1 -1 -1 -2 -2 -2 -2 -3 -3 -3 -4 -4 -4 -4 -5 -5
5 5 5 5 4 4 4 4 4 4 3 3 3 2 2 1 1 1 0 0 0 0 0 0 -0 -0 -1 -1 -1 -2 -2 -2 -2 -3 -3 -3 -4 -4 -4 -5 -5 -6 -6 -6
5 5 5 5 5 4 4 4 4 3 3 2 2 2 1 1 1 1 0 0 -0 -0 -0 -1 -1 -1 -1 -2 -2 -2 -3 -3 -3 -4 -4 -4 -5 -5 -5 -5 -6 -6 -7 -8
5 5 5 5 4 4 3 3 3 3 2 2 2 1 1 1 1 1 0 0 -0 -1 -1 -1 -1 -1 -2 -2 -2 -3 -3 -3 -4 -4 -5 -5 -5 -5 -6 -6 -7 -7 -8 -9
5 5 5 5 4 4 4 3 3 2 2 2 1 2 2 1 1 0 0 -0 -0 -1 -1 -1 -2 -2 -2 -3 -3 -3 -3 -4 -4 -5 -5 -6 -6 -6 -7 -7 -8 -8 -9 -10
4 4 4 4 4 4 3 3 3 3 2 2 2 2 1 1 0 0 0 -0 -1 -1 -2 -1 -2 -2 -3 -3 -3 -4 -4 -5 -5 -5 -6 -6 -7 -7 -7 -8 -9 -9 -9 -10
1 2 2 3 3 3 3 2 2 2 2 2 2 2 2 1 0 -0 -1 -1 -1 -2 -2 -2 -2 -3 -3 -4 -4 -5 -5 -5 -6 -6 -6 -7 -7 -8 -8 -9 -9 -10 -10 -11
1 1 1 1 2 2 2 2 2 1 1 0 1 1 1 0 -0 -1 -0 -1 -2 -3 -2 -3 -3 -3 -4 -4 -5 -5 -6 -6 -6 -6 -7 -7 -8 -8 -9 -9 -10 -11 -11 -12
0 0 -0 -0 0 -0 0 1 1 0 0 0 -0 -0 -0 -1 -1 -1 -1 -2 -3 -3 -3 -4 -4 -4 -5 -5 -6 -6 -7 -8 -8 -7 -7 -8 -8 -9 -9 -10 -10 -11 -12 -13
-0 -1 -1 -1 -1 -2 -2 -1 -1 -0 -0 -0 -1 -1 -1 -2 -2 -3 -2 -3 -4 -4 -4 -5 -5 -5 -5 -6 -6 -6 -8 -10 -10 -8 -8 -8 -9 -9 -10 -10 -11 -12 -13 -14
-1 -1 -2 -2 -1 -2 -2 -3 -2 -2 -2 -2 -2 -1 -2 -3 -3 -3 -3 -4 -5 -5 -5 -6 -6 -6 -6 -6 -7 -7 -7 -11 -10 -9 -8 -9 -9 -9 -10 -10 -11 -12 -14 -14
-3 -3 -3 -3 -2 -2 -3 -3 -3 -3 -3 -3 -3 -3 -3 -3 -4 -5 -5 -6 -6 -6 -6 -7 -7 -6 -6 -6 -8 -7 -8 -11 -10 -9 -9 -9 -9 -9 -10 -11 -12 -13 -14 -15
-3 -4 -4 -4 -4 -4 -5 -5 -5 -5 -5 -5 -5 -5 -4 -4 -5 -5 -6 -7 -7 -7 -7 -7 -7 -7 -7 -7 -9 -8 -10 -12 -10 -9 -9 -10 -10 -10 -10 -11 -12 -14 -15 -16
-4 -4 -4 -4 -5 -5 -6 -6 -6 -6 -6 -7 -7 -7 -6 -7 -7 -8 -8 -8 -8 -8 -8 -8 -8 -8 -7 -9 -9 -9 -12 -12 -10 -9 -10 -10 -10 -10 -11 -12 -13 -15 -15 -16